GFSCGP_925_thetae_003.txt.gz
Theta_e
313 312 313 314 313 315 314 315 316 315 314 316 316 313 313 309 308 308 305 307 309 310 309 310 311 311 313 313 312 312 311 311 310 310 309 309 309 309 308 308 308 308 307 309
314 315 314 314 314 314 315 317 315 314 314 316 315 315 308 308 310 309 308 308 309 309 308 308 310 311 312 312 311 311 312 311 311 311 311 310 310 309 309 308 308 307 307 307
314 315 313 314 313 313 313 316 316 316 315 315 315 316 312 312 311 310 310 308 308 308 309 309 309 310 311 311 311 312 312 312 311 311 310 310 309 308 309 309 308 308 307 307
315 312 314 313 314 313 315 313 315 316 318 319 314 318 315 312 313 312 309 307 308 309 309 309 310 311 311 312 312 312 311 311 311 310 310 309 309 307 309 309 310 310 309 307
316 312 313 314 315 314 316 315 315 318 317 318 316 315 316 312 313 312 311 311 310 310 310 311 311 310 310 311 311 312 312 312 312 311 311 310 310 310 310 310 309 309 308 306
315 312 314 315 315 316 315 317 316 316 316 319 318 317 314 313 313 313 312 311 311 310 311 310 310 311 312 312 312 311 311 310 310 309 309 308 308 308 308 308 308 308 308 307
318 318 315 315 317 316 315 316 316 315 316 319 318 316 314 314 313 313 312 311 310 309 308 308 308 310 311 310 310 310 310 309 308 308 308 307 306 306 307 306 306 307 306 303
321 318 319 317 317 318 318 317 315 319 317 318 316 320 316 314 312 311 312 310 311 310 308 308 309 309 309 309 310 309 308 307 307 307 304 304 304 304 304 304 304 304 302 298
319 320 317 318 318 317 319 318 316 315 305 312 317 318 314 314 315 314 313 312 309 308 308 309 309 309 309 309 309 309 308 307 307 303 304 305 304 303 303 303 301 301 298 296
319 322 318 317 317 316 317 316 318 314 315 322 321 320 319 317 316 315 312 309 308 307 308 307 308 309 309 309 308 308 307 307 306 305 305 305 303 302 301 301 300 298 296 297
316 319 316 315 318 319 317 317 316 318 315 319 318 320 315 315 314 314 310 310 309 309 307 307 308 309 309 308 308 307 307 307 304 304 304 304 302 300 297 297 297 295 297 296
316 313 314 317 314 315 317 317 315 318 317 313 310 318 314 314 313 311 310 310 308 307 307 307 308 309 308 308 308 306 306 306 303 303 302 301 300 298 295 295 295 295 294 294
315 312 313 314 313 313 318 317 316 311 308 315 312 314 312 313 311 311 310 309 308 307 308 307 307 307 307 307 307 306 306 302 302 301 300 300 298 295 294 294 294 294 293 292
314 314 313 315 313 315 318 317 316 314 307 314 315 316 314 312 312 310 310 309 308 308 308 307 307 306 307 307 306 305 304 302 300 300 300 298 293 292 293 293 293 294 295 293
313 316 315 314 315 316 317 318 318 317 315 317 316 314 312 311 312 311 310 309 309 309 308 307 307 305 306 306 305 303 302 300 299 300 298 294 293 293 293 295 294 294 293 293
313 312 316 315 315 316 317 316 315 315 315 313 312 312 309 312 311 311 310 310 309 308 308 307 305 305 305 305 303 302 300 299 299 299 297 297 295 294 294 294 293 293 293 293
314 308 309 310 311 310 312 311 314 313 311 311 311 310 312 312 311 311 310 309 308 307 306 304 304 304 304 302 300 299 298 299 298 298 297 296 296 296 295 294 294 294 291 289
307 306 306 307 313 315 313 311 310 311 311 309 310 312 312 311 311 309 308 308 306 306 305 303 304 302 301 300 299 298 298 297 296 293 292 292 292 292 292 291 289 288 287 286
307 309 311 317 315 311 314 312 312 311 311 311 313 312 311 310 308 307 307 305 304 302 302 303 302 299 299 298 295 294 292 291 291 290 291 291 290 289 288 288 287 286 285 285
306 300 305 310 315 317 311 308 309 312 314 311 313 311 310 309 312 311 307 303 302 302 302 301 299 298 298 298 294 294 293 292 291 292 290 288 288 287 287 286 285 285 284 284
303 307 310 310 311 308 307 307 309 314 312 308 310 310 309 310 311 307 303 302 302 302 301 299 297 297 297 295 294 291 290 292 290 289 288 287 287 287 286 285 284 284 284 283
308 308 306 307 310 311 308 312 313 311 308 308 307 306 307 308 305 303 302 302 301 299 298 297 295 296 296 294 292 291 289 289 288 287 286 286 286 286 285 284 284 283 282 281
312 309 307 310 309 307 306 311 309 309 308 307 307 309 308 305 303 301 302 301 299 298 297 295 295 295 295 294 290 290 290 288 288 287 286 285 285 284 283 283 283 282 281 281
312 310 307 310 311 310 310 310 310 308 308 309 305 303 300 300 299 300 300 299 297 297 295 295 295 295 295 294 292 290 288 288 288 287 286 285 284 283 283 282 282 282 281 281
313 312 312 313 313 311 310 309 309 309 305 302 301 300 300 300 299 299 298 297 297 295 295 296 295 294 293 293 291 289 289 288 288 287 286 285 284 283 283 282 281 281 281 280
311 312 312 315 312 311 312 307 305 304 302 302 301 301 300 299 298 298 297 298 296 295 295 296 294 294 292 290 289 289 288 288 287 287 286 286 285 284 283 281 281 281 280 279

GFSCGP_925_thetae_006.txt.gz
Theta_e
311 311 312 313 313 313 313 313 315 313 313 315 315 313 309 305 306 306 305 306 307 308 307 308 310 311 312 313 315 313 312 311 310 310 310 310 310 310 309 310 309 308 308 308
312 313 313 312 312 312 313 315 312 313 313 315 314 314 309 309 308 306 307 307 309 308 308 308 310 312 313 313 312 312 311 310 310 309 309 308 308 308 309 310 310 309 308 308
313 313 312 312 312 314 313 314 314 315 313 314 313 314 311 310 310 308 307 308 309 308 308 308 308 310 310 311 310 310 309 309 308 308 308 309 309 309 310 310 310 310 310 309
314 311 312 314 314 313 316 312 314 314 317 318 313 316 314 310 312 309 309 308 309 309 308 308 309 309 309 309 309 309 310 310 310 309 309 308 308 307 308 307 307 307 308 307
313 312 314 316 315 314 316 314 315 316 317 316 315 314 313 311 312 311 311 309 309 307 307 309 308 308 309 309 310 310 310 310 309 309 308 307 305 304 304 305 305 304 304 304
315 312 313 314 314 315 314 316 313 314 314 318 317 316 313 313 313 312 312 311 309 309 308 308 309 310 309 310 310 310 310 309 308 308 306 304 303 303 303 303 303 303 303 303
317 317 315 314 317 315 314 313 313 315 314 318 316 316 312 313 312 312 312 311 309 306 305 305 307 308 309 309 309 309 308 308 307 306 304 305 305 304 302 302 303 302 302 302
320 315 318 316 317 317 317 316 313 316 316 316 315 318 316 313 310 309 309 309 307 307 307 306 307 307 308 308 308 308 307 307 306 306 305 305 305 304 301 301 301 301 301 299
318 319 316 317 316 316 318 317 315 314 303 311 316 316 314 313 313 312 309 308 307 306 305 306 308 308 308 308 308 308 307 307 306 306 304 305 304 302 301 300 300 299 299 297
318 321 317 316 316 315 316 314 316 313 315 318 318 317 317 315 313 311 309 308 307 306 306 307 308 309 309 308 308 308 307 306 306 305 304 304 302 300 300 299 298 297 297 297
315 316 314 314 316 318 316 315 315 315 314 315 315 317 314 313 312 311 310 309 308 307 306 305 307 308 308 308 308 307 306 305 306 303 303 301 300 299 297 296 296 295 297 295
315 311 313 315 314 315 315 316 313 311 313 311 309 314 312 312 311 310 311 309 308 307 306 305 307 308 308 308 308 307 305 305 302 302 300 299 299 297 294 293 294 295 293 292
314 311 311 310 312 312 317 316 314 309 308 314 311 313 310 310 310 311 310 309 308 307 306 306 307 307 308 307 307 307 305 303 301 299 299 298 296 292 292 292 293 293 294 293
312 312 311 311 311 311 316 317 315 314 316 314 314 315 314 312 310 310 309 308 308 307 306 306 305 306 307 305 305 305 303 301 299 299 298 296 293 291 292 294 294 294 294 294
312 316 313 313 313 313 315 316 315 315 314 317 316 313 313 311 308 310 310 308 309 309 307 305 305 306 304 304 304 302 300 298 298 298 297 296 295 294 294 294 294 294 294 293
310 311 314 313 313 313 314 314 314 314 314 314 314 314 310 307 311 310 310 309 309 307 305 305 303 303 303 303 301 299 298 298 298 297 297 296 296 295 295 292 292 292 292 292
313 306 309 309 310 309 309 309 312 313 311 311 311 310 308 312 310 309 309 308 307 305 303 300 300 301 302 300 299 298 298 297 297 294 291 291 291 291 291 291 290 289 288 287
306 304 305 308 312 317 311 310 310 310 309 308 308 307 309 310 308 307 307 307 304 302 302 301 301 301 300 298 297 295 295 294 291 291 292 292 291 288 288 287 287 286 286 285
306 307 310 316 315 312 314 311 311 310 309 309 309 311 310 308 306 307 303 302 302 302 301 301 301 299 298 297 295 292 292 291 291 293 292 290 288 287 287 286 285 285 284 284
305 300 304 310 314 316 310 308 308 311 311 310 312 311 311 307 310 311 304 302 301 300 301 300 300 298 296 297 296 293 293 292 291 291 289 287 287 286 286 285 284 284 283 283
304 306 315 315 313 310 307 306 308 314 312 310 308 310 307 307 307 302 300 299 298 300 301 300 297 295 296 297 294 293 291 289 290 288 287 286 286 285 285 284 284 283 282 282
306 304 302 306 310 310 306 310 313 310 310 309 308 306 308 304 302 300 300 299 298 300 300 298 296 295 296 296 292 290 290 291 289 287 286 285 285 285 284 283 282 282 282 281
310 308 310 312 308 306 307 311 308 308 308 307 308 304 302 300 300 299 298 298 298 299 299 296 295 295 296 295 294 294 292 290 288 287 286 285 285 284 283 282 282 282 281 281
311 310 311 311 310 311 312 310 308 306 307 303 302 301 300 300 300 298 297 297 297 298 297 295 294 295 295 293 293 293 290 288 288 287 286 286 285 284 283 283 281 281 281 280
311 311 312 311 313 311 309 307 305 304 303 302 301 301 300 298 297 297 296 295 297 297 296 295 294 295 294 293 292 290 289 288 287 287 286 286 285 284 284 283 281 281 280 280
309 311 310 313 310 312 312 307 305 304 303 302 301 299 299 298 295 296 295 296 296 295 295 295 295 294 293 292 289 289 288 287 287 287 286 285 284 284 283 282 281 281 280 279

GFSCGP_925_thetae_009.txt.gz
Theta_e
313 316 315 314 313 313 314 314 316 315 314 317 317 316 313 311 310 310 310 311 312 313 309 309 310 310 311 313 314 316 315 313 313 311 309 308 309 308 309 309 309 309 309 308
315 315 312 312 312 313 314 315 314 315 313 317 317 316 312 312 311 310 312 313 313 312 311 309 309 310 311 313 313 311 309 307 307 307 307 307 308 309 309 309 309 308 308 308
316 313 312 313 314 317 316 315 315 316 315 315 315 317 315 312 311 311 311 311 311 313 313 311 310 309 308 308 307 307 307 308 309 309 309 308 308 308 307 307 306 305 305 304
312 311 314 316 316 315 318 314 316 316 319 321 315 320 317 313 313 312 312 312 313 312 312 311 310 309 308 307 309 309 309 308 308 307 306 305 305 305 305 304 303 301 302 303
313 314 316 318 315 314 319 315 316 317 319 319 320 320 318 314 314 313 313 311 312 310 310 310 310 309 308 309 309 308 308 308 307 307 305 305 305 304 304 303 303 302 301 301
315 313 314 315 314 315 315 316 314 315 318 324 319 319 319 318 315 314 313 313 311 310 309 309 309 309 308 308 309 308 308 308 307 306 305 305 304 304 304 303 302 301 301 301
318 317 316 314 318 317 318 316 321 325 326 325 317 319 318 315 312 312 313 312 312 311 311 311 310 309 309 308 308 308 307 307 306 306 305 304 304 304 303 302 300 300 300 300
320 319 318 317 317 318 319 318 323 321 324 323 316 321 319 314 313 312 312 311 310 310 310 311 309 309 308 308 307 307 307 307 306 305 305 304 304 303 301 300 299 299 298 298
321 319 316 316 316 316 319 322 316 317 308 322 319 319 316 314 315 314 311 311 311 310 310 310 310 309 309 308 308 308 307 305 305 305 305 303 303 300 299 299 297 297 296 297
318 321 316 316 315 316 318 315 320 320 323 322 320 319 319 316 315 313 312 313 312 312 311 311 310 309 308 308 307 308 307 305 304 304 302 301 299 298 297 296 295 295 295 298
315 317 316 314 318 319 319 319 317 317 319 325 324 321 316 315 315 314 312 312 312 312 312 311 310 309 308 308 307 306 306 305 304 302 300 299 298 296 294 293 294 294 296 295
315 315 316 316 314 315 316 316 314 318 316 317 317 318 312 314 314 313 313 312 312 311 311 310 309 308 308 307 306 306 305 303 301 300 299 297 295 294 292 293 293 293 293 292
315 315 315 311 314 313 318 317 313 312 313 319 321 318 311 312 312 312 313 312 312 311 311 310 309 308 307 305 305 305 303 301 299 298 298 296 296 294 294 294 294 294 294 294
314 314 313 314 311 313 316 316 315 317 320 318 318 317 316 315 314 312 311 312 312 311 310 309 308 305 303 303 303 302 300 299 298 298 297 296 295 294 294 294 294 294 293 293
315 319 315 314 314 314 315 316 316 317 318 319 318 317 316 314 313 311 312 312 311 311 310 307 304 302 302 302 302 300 299 298 298 298 297 297 296 296 293 292 292 292 293 293
311 315 314 315 312 312 314 314 314 315 316 316 316 317 314 312 311 313 311 310 310 309 305 303 302 301 301 302 300 298 297 297 297 297 294 292 292 293 292 292 291 291 290 288
314 314 313 314 311 312 314 310 313 314 313 314 314 313 310 312 312 312 311 309 306 303 302 301 300 301 301 300 298 297 296 296 295 293 292 292 292 290 289 288 287 287 286 286
309 310 310 316 313 318 314 310 311 313 312 311 310 310 310 312 311 309 306 304 303 302 300 300 299 301 301 298 296 296 295 294 293 292 293 292 290 288 288 287 286 285 285 285
308 310 313 315 316 314 314 313 311 312 312 310 312 312 312 312 310 308 303 302 300 299 300 299 300 300 298 296 296 294 292 292 292 292 291 289 287 287 286 286 285 284 284 284
307 304 314 313 318 319 314 308 308 310 315 312 312 313 313 311 312 311 301 300 300 299 299 299 300 299 296 296 296 294 294 292 292 290 289 287 286 286 285 284 284 284 283 283
308 308 312 314 315 315 310 308 307 316 316 310 310 311 310 309 305 302 301 300 299 299 298 299 299 296 295 296 295 294 291 291 291 288 288 287 285 285 285 284 283 283 283 282
310 312 310 309 312 313 306 309 314 313 311 310 309 308 305 305 302 300 301 300 298 298 298 298 298 296 295 296 294 292 292 293 292 290 287 286 285 285 284 283 283 282 282 282
313 311 313 312 313 308 307 311 311 308 309 307 306 304 302 301 300 300 300 299 298 298 297 297 296 295 295 295 293 293 293 293 290 288 287 286 286 285 284 283 283 283 282 282
310 308 313 311 313 311 311 310 308 306 305 304 304 302 301 301 300 300 299 298 297 296 296 295 295 295 295 295 293 292 291 290 288 287 287 286 286 285 285 283 283 282 282 281
313 311 312 311 312 311 310 310 308 305 304 303 302 301 301 300 300 299 298 296 296 295 294 294 294 294 295 293 292 291 289 289 287 287 286 286 285 284 284 283 282 282 281 279
311 313 314 314 312 312 311 309 305 304 303 301 301 300 298 297 298 296 296 295 294 294 293 293 292 292 290 289 288 287 287 287 286 286 286 285 284 283 282 282 281 281 280 279

GFSCGP_925_thetae_012.txt.gz
Theta_e
319 320 320 319 319 318 318 318 318 318 318 320 321 320 318 317 318 318 318 317 319 322 318 316 316 316 316 320 322 322 320 315 315 314 313 313 313 312 313 313 312 312 312 311
319 319 317 317 317 317 318 318 318 319 318 320 322 320 318 317 317 318 318 319 319 318 318 316 316 316 317 316 314 313 312 311 311 311 311 312 312 313 312 312 311 310 308 308
319 317 315 318 320 321 320 319 321 321 320 320 321 322 319 317 317 317 317 318 318 318 317 316 315 315 314 314 313 313 313 312 312 312 312 311 312 312 311 309 308 307 306 306
318 317 319 320 320 321 321 319 320 321 322 322 321 323 320 318 318 317 317 318 317 317 316 315 315 315 315 314 314 313 312 312 311 310 310 310 310 310 309 308 307 306 305 305
317 319 320 321 319 320 322 320 321 321 323 323 323 323 322 319 318 317 317 317 317 316 316 316 315 314 314 313 313 313 312 311 311 310 309 309 309 308 307 307 306 304 303 303
319 318 320 320 319 319 320 321 321 322 325 327 324 323 324 322 319 318 317 317 317 317 315 315 314 314 314 314 314 313 312 311 310 310 308 307 308 307 306 305 304 303 302 302
320 321 320 320 321 321 322 322 325 329 329 328 321 322 323 319 317 318 318 318 318 318 317 316 315 315 314 314 313 312 311 311 309 309 308 306 306 305 305 304 303 302 301 301
322 324 322 320 321 322 322 323 327 326 326 324 321 322 323 318 318 317 317 316 316 316 316 315 314 314 314 313 313 312 311 310 308 308 307 305 306 305 303 302 301 300 300 300
323 322 320 319 319 320 322 324 320 324 319 328 322 322 320 318 318 317 317 317 317 316 315 315 313 313 313 313 312 311 311 311 309 308 307 306 305 303 301 299 298 298 299 299
321 323 319 319 319 320 321 319 324 322 330 319 317 319 319 321 319 317 317 317 316 316 315 315 314 313 312 312 312 311 310 309 309 307 305 304 302 300 298 297 297 298 299 300
318 320 319 319 322 322 322 322 321 320 323 322 321 317 320 319 318 317 317 316 316 316 315 314 313 312 312 311 310 309 309 308 306 305 303 302 300 298 297 297 297 297 297 296
319 321 318 317 318 318 319 320 319 320 319 321 322 318 316 317 317 316 316 315 315 315 314 313 313 311 311 309 308 306 305 304 303 302 301 300 298 297 297 297 297 297 296 296
319 320 316 317 320 319 321 319 319 319 319 321 324 319 315 316 316 315 316 315 315 314 313 313 312 311 309 307 305 304 303 303 302 301 300 299 298 298 297 297 296 296 296 296
316 320 318 314 314 316 316 315 317 318 322 319 319 318 317 316 315 315 315 315 314 313 313 313 311 309 305 304 303 303 303 302 300 300 299 299 298 297 297 295 295 294 294 294
320 319 319 317 316 316 316 316 316 317 318 320 319 317 316 316 315 315 314 314 314 313 312 309 308 304 303 302 303 303 300 299 299 299 298 297 296 295 294 293 292 292 292 290
318 319 317 317 315 315 316 316 315 316 317 318 317 317 314 313 314 315 314 313 312 311 307 304 303 301 301 302 303 299 298 298 299 298 297 295 294 294 292 291 290 289 288 288
320 320 319 323 315 316 321 317 315 315 316 316 317 315 314 315 315 314 313 312 309 305 303 303 301 301 301 303 300 298 298 297 297 296 295 294 294 293 291 290 288 288 288 288
316 319 316 322 319 324 316 314 314 315 315 314 314 314 315 315 314 313 310 308 303 303 302 301 301 300 302 302 299 298 297 297 296 295 295 294 292 291 290 288 288 288 287 287
316 318 318 319 318 316 315 314 314 314 315 314 315 315 315 314 313 312 304 302 303 303 301 301 300 300 302 301 299 298 297 296 296 295 294 293 291 290 288 288 288 287 287 287
312 313 321 318 319 320 317 313 311 313 317 314 314 314 313 314 313 309 304 304 303 301 300 299 299 300 301 300 299 298 297 296 294 294 293 292 290 289 288 288 288 287 286 286
314 313 317 317 319 317 314 312 312 319 320 315 312 311 311 309 306 306 304 302 301 300 299 298 298 299 299 299 298 298 297 295 293 293 292 291 290 288 288 288 288 287 286 286
318 320 317 316 316 318 311 312 317 315 313 310 309 308 307 306 305 303 301 301 299 299 298 298 297 297 297 297 297 297 296 294 294 294 293 291 289 288 287 288 287 287 286 285
317 315 316 315 318 314 314 315 312 312 312 308 308 307 306 304 302 300 300 299 299 299 298 297 296 296 295 296 296 297 295 294 293 292 291 290 289 288 288 288 287 286 285 284
315 313 316 315 314 314 314 313 313 310 307 307 305 304 302 302 300 299 299 299 298 297 296 296 295 294 294 295 295 295 294 293 292 292 290 290 289 288 288 287 286 285 284 283
316 315 315 315 315 314 313 312 311 307 305 304 302 302 301 298 298 298 298 297 296 295 295 295 294 293 293 293 292 292 290 289 290 289 289 289 288 288 287 286 285 284 283 281
315 315 315 316 314 313 313 308 307 306 303 301 300 298 297 297 297 296 296 295 295 295 295 294 293 292 292 291 291 289 288 288 287 288 288 288 287 287 286 285 284 283 281 279

GFSCGP_925_thetae_015.txt.gz
Theta_e
321 322 322 321 320 319 318 318 319 320 320 319 320 321 320 321 321 322 322 321 321 322 325 322 320 320 321 325 326 327 325 320 318 317 316 316 316 315 315 316 315 315 314 312
319 321 320 319 319 319 320 320 321 321 320 320 322 321 320 320 321 322 321 322 323 323 321 320 320 320 320 320 319 318 317 316 315 315 315 315 315 315 315 315 313 312 311 310
321 320 318 320 320 321 322 321 323 322 321 321 321 322 320 320 320 320 320 320 320 320 319 319 319 319 319 318 317 316 316 315 315 314 314 314 314 314 314 313 312 311 310 309
320 320 320 320 322 322 323 321 321 322 322 323 322 325 323 321 320 320 320 320 320 319 319 319 319 319 318 318 316 316 315 315 314 314 313 314 313 313 313 312 311 310 308 307
321 321 322 322 322 321 323 322 322 323 324 323 322 322 324 321 321 320 320 320 320 319 320 319 318 318 317 317 317 316 315 315 314 314 312 312 312 311 311 310 309 307 306 305
321 320 322 322 321 321 322 323 323 325 326 327 325 324 326 324 323 320 319 319 320 319 319 318 317 317 317 317 317 316 315 314 314 313 312 311 310 309 308 308 306 305 304 303
322 322 322 321 323 324 323 325 329 330 330 330 324 321 326 322 321 321 320 321 321 320 320 319 318 317 317 316 316 315 315 314 313 312 311 310 309 308 307 306 305 303 302 301
324 327 322 321 323 324 323 325 330 327 328 325 323 321 325 321 320 320 319 319 319 319 318 318 317 317 316 316 315 315 314 314 313 312 311 310 309 307 305 304 302 301 300 300
324 325 321 321 322 322 324 325 322 327 325 328 322 322 323 321 320 319 319 319 319 318 317 317 316 316 315 315 314 314 313 312 311 311 310 308 306 305 303 301 300 300 300 300
322 326 320 321 321 322 323 321 326 324 328 321 319 317 323 322 321 320 319 318 318 318 317 317 316 315 314 314 313 312 311 311 310 308 307 306 304 303 300 299 299 299 299 299
319 321 322 320 322 322 324 324 322 320 322 324 321 319 319 319 319 319 318 317 317 318 317 316 315 314 313 313 312 310 309 308 307 305 304 303 302 301 299 299 299 298 298 297
320 321 320 318 320 321 321 322 320 321 319 320 322 321 318 318 317 317 317 317 317 316 316 315 314 313 313 311 310 308 307 305 304 303 302 301 300 300 299 299 297 297 296 297
320 322 320 319 322 321 320 320 318 318 319 319 327 321 317 318 318 317 316 316 316 315 314 314 313 312 311 309 307 305 304 304 303 301 300 300 299 299 298 297 296 295 295 295
318 320 319 319 317 316 316 316 316 317 321 321 320 319 318 317 317 316 316 316 315 314 313 313 311 310 309 306 304 304 303 303 301 300 299 299 299 297 297 296 295 294 293 292
321 320 319 318 316 315 316 316 316 316 316 319 319 318 318 317 316 316 316 315 314 314 313 311 309 307 304 303 303 303 302 300 299 299 299 298 297 296 295 294 293 292 291 290
319 322 319 319 317 315 316 315 315 316 316 317 317 317 317 316 316 316 315 315 313 312 310 308 304 303 302 302 302 302 301 300 299 298 298 297 296 295 295 293 292 290 290 289
321 322 319 322 319 318 323 319 315 316 316 317 319 317 316 316 316 314 314 314 312 308 306 307 304 303 302 302 302 302 300 299 298 297 297 296 296 295 293 292 290 290 289 289
322 321 322 324 320 327 319 316 316 316 316 315 316 316 316 315 314 312 312 311 308 307 306 305 303 302 301 300 301 301 300 299 298 298 297 296 295 294 292 291 290 289 289 289
319 321 320 323 320 317 317 316 316 316 317 315 317 317 316 314 313 312 308 307 307 306 304 303 301 300 300 300 300 300 300 299 298 297 296 295 295 294 292 291 290 289 289 289
317 319 323 320 321 321 319 316 314 315 318 317 316 315 314 313 315 313 309 307 306 304 302 301 300 300 299 298 298 298 298 297 297 297 295 294 294 293 292 290 290 289 289 288
317 317 324 319 321 318 315 314 314 318 320 316 315 314 311 311 310 308 307 305 303 301 300 300 299 299 298 297 297 296 296 296 296 296 295 295 295 293 291 290 289 289 289 288
318 321 318 318 320 319 314 314 319 317 317 315 312 309 309 309 307 306 304 302 300 300 300 299 298 297 297 296 295 295 295 296 296 296 295 294 293 292 290 290 289 289 288 287
318 318 319 318 319 315 314 315 315 315 315 312 308 308 308 306 305 303 301 301 300 299 298 297 296 296 295 294 294 294 294 294 294 294 293 293 292 291 290 290 289 288 287 286
316 316 318 318 315 314 314 314 314 313 312 308 306 307 304 304 302 300 300 300 298 297 296 295 295 295 294 294 293 293 293 292 292 291 291 291 291 290 289 289 288 287 286 285
318 317 318 319 316 314 315 313 312 311 308 306 306 304 303 301 300 300 299 297 296 296 295 295 295 294 294 294 293 292 292 290 290 290 289 289 290 289 289 288 287 286 285 283
315 316 320 320 315 315 315 312 310 309 308 304 303 302 300 300 300 297 297 296 295 295 295 295 294 294 294 293 292 291 290 290 288 288 289 289 289 288 287 287 286 284 284 282

GFSCGP_925_thetae_018.txt.gz
Theta_e
321 321 323 321 320 318 319 318 319 321 320 319 318 320 321 321 321 322 322 323 322 325 323 322 321 322 325 326 326 327 323 320 319 318 316 316 316 316 316 316 316 315 313 312
319 321 320 320 319 319 319 320 320 321 320 319 319 321 321 321 322 322 322 322 325 323 322 322 321 321 320 319 319 318 318 317 316 316 316 316 315 316 315 315 314 313 312 311
322 320 318 319 320 321 321 321 324 322 321 321 321 321 321 320 321 321 322 323 322 321 321 321 321 321 319 318 318 317 316 316 315 314 315 315 315 314 314 314 313 312 311 309
321 320 319 320 321 322 322 323 322 321 322 323 322 322 322 320 320 321 321 321 321 320 320 320 321 320 319 318 317 316 316 315 315 315 314 313 314 313 312 312 311 309 308 307
321 320 322 323 323 321 323 322 322 322 323 323 322 323 324 321 321 321 321 321 321 321 320 320 319 319 318 318 318 317 316 316 315 314 314 313 312 311 310 309 309 307 306 304
321 321 322 322 321 321 321 324 324 324 325 333 323 324 327 323 322 321 320 320 320 320 320 319 318 318 318 318 317 317 316 315 315 313 312 312 311 310 309 308 306 304 302 302
322 323 322 321 323 324 324 325 334 337 337 336 326 321 327 323 322 321 321 321 321 321 321 320 319 318 317 317 316 316 316 315 314 313 313 312 310 308 307 305 303 301 301 301
324 327 323 322 323 323 324 324 336 331 334 329 322 321 324 322 321 321 320 320 320 320 319 319 317 316 316 316 315 315 315 314 312 312 311 310 308 306 305 302 301 300 300 300
324 325 321 321 321 321 324 326 320 327 326 331 321 325 323 321 320 320 320 319 319 319 318 318 317 316 316 315 314 314 313 312 311 309 308 307 305 304 303 301 300 299 300 299
321 327 321 320 321 323 322 320 327 331 331 325 319 320 325 323 321 320 319 319 318 318 318 318 316 316 315 314 314 312 310 309 308 307 305 304 303 302 301 300 300 299 297 297
320 321 323 320 322 321 323 324 322 320 325 327 325 320 318 318 320 319 318 318 318 318 317 317 315 314 313 312 311 310 309 307 305 305 304 303 301 300 300 300 299 297 296 296
318 321 328 319 319 319 320 321 320 330 323 329 327 321 318 318 318 319 318 317 317 317 316 315 314 314 312 311 310 309 306 305 305 303 302 300 300 300 300 298 298 296 296 296
320 324 327 322 323 321 319 319 318 319 323 322 324 321 318 318 318 319 317 317 316 316 314 314 313 312 310 310 308 306 304 304 303 301 300 300 300 299 298 297 297 296 295 294
320 320 319 323 318 316 316 316 316 317 326 324 323 319 317 318 318 317 316 316 315 315 314 313 311 310 308 305 305 303 303 303 302 301 299 299 299 298 297 296 296 295 293 292
321 321 320 319 316 316 315 315 316 316 317 319 319 317 317 318 317 317 316 315 315 314 313 311 310 307 305 304 303 303 303 303 301 300 299 299 298 297 296 296 295 294 292 290
320 324 322 320 317 316 316 315 316 316 316 316 317 317 317 317 316 316 315 314 314 313 310 308 307 306 304 304 303 302 302 302 301 300 300 299 298 297 296 295 294 293 291 290
322 327 323 325 319 319 326 321 317 316 316 316 319 318 318 317 316 315 314 314 312 309 308 307 306 305 303 302 301 301 301 301 301 301 300 299 298 297 296 295 293 292 290 290
323 322 322 324 320 324 318 315 316 316 316 315 315 317 317 315 313 313 311 310 309 308 307 306 305 302 301 300 300 299 299 298 298 299 299 298 297 296 295 294 293 291 290 290
320 323 320 325 321 318 316 317 316 316 317 316 318 317 315 313 312 312 310 309 308 307 305 303 301 301 300 300 299 298 297 297 297 297 297 297 296 295 295 294 292 290 290 289
319 323 325 319 322 320 319 316 315 315 318 318 317 316 314 312 314 312 308 307 305 303 302 301 301 300 299 298 297 296 296 295 295 297 297 296 296 295 294 292 291 290 290 289
316 319 321 320 320 319 315 315 315 317 320 317 316 314 312 312 311 308 306 305 302 301 300 300 299 298 297 297 296 295 295 294 294 295 295 294 294 294 292 291 290 290 289 289
317 319 317 319 319 320 315 315 317 318 317 316 314 311 310 310 308 306 304 302 300 300 299 298 297 296 296 296 295 295 294 294 293 293 293 293 293 293 292 291 290 290 288 288
321 322 324 320 320 317 316 315 315 315 316 313 311 310 308 308 304 303 301 301 300 298 297 296 296 295 295 295 295 294 294 293 292 291 291 292 292 291 291 291 289 288 287 286
316 315 324 321 317 315 316 315 314 313 311 310 309 308 308 304 303 301 301 300 298 297 296 296 295 295 296 295 294 294 292 292 291 291 290 290 290 290 290 289 288 287 286 286
320 317 318 319 317 317 316 314 313 311 310 308 308 306 304 302 301 301 299 298 297 296 296 295 295 295 295 294 294 293 291 291 290 289 289 289 289 289 288 288 286 286 285 284
317 316 319 321 317 317 316 313 311 310 308 308 304 302 301 300 299 298 297 297 296 295 295 295 294 294 294 294 293 292 291 290 288 287 287 286 287 287 287 287 286 285 285 284

GFSCGP_925_thetae_021.txt.gz
Theta_e
318 318 318 318 318 317 317 317 318 317 318 318 318 314 317 318 318 318 316 320 320 321 320 319 320 321 321 320 320 320 318 316 316 316 316 315 315 315 314 315 313 313 312 311
318 319 318 318 318 319 318 319 321 318 318 317 316 317 317 318 318 316 320 319 319 319 319 319 319 318 317 317 317 317 316 316 315 315 315 315 314 315 314 312 312 310 308 307
319 318 318 318 320 320 321 321 320 320 318 318 319 317 318 318 318 319 318 318 318 318 319 319 318 317 317 316 316 316 315 315 314 314 314 314 313 313 313 311 310 307 307 305
319 318 319 319 321 319 324 322 322 321 320 320 317 318 318 318 318 318 317 315 315 316 318 318 318 318 317 317 316 316 315 315 315 314 314 313 312 311 310 309 307 306 305 304
319 320 322 323 321 320 323 321 321 321 320 321 321 319 318 317 320 319 317 317 316 315 315 315 317 318 318 317 317 316 316 315 315 314 313 312 311 310 308 306 305 304 303 301
319 319 320 320 321 320 319 322 323 323 321 323 327 324 326 320 321 319 318 317 316 315 314 316 318 318 318 317 316 316 315 315 312 313 312 311 309 307 306 304 303 302 300 300
320 321 321 320 322 322 321 323 324 326 326 326 327 325 326 320 319 319 319 317 316 315 314 313 315 317 317 316 316 315 315 313 312 311 310 308 307 306 305 303 302 300 300 300
324 325 320 321 321 321 323 323 320 329 325 323 324 325 322 319 318 319 318 316 316 315 314 313 315 315 315 314 314 314 314 312 310 308 308 306 305 304 303 302 301 299 300 299
326 323 320 319 319 319 322 320 319 323 322 319 321 322 320 319 319 318 317 317 315 315 313 314 314 314 313 314 313 312 311 309 308 306 304 304 302 302 301 301 300 299 298 297
320 323 320 319 319 321 320 318 322 319 322 323 319 324 325 322 322 321 318 315 314 314 313 311 312 312 312 312 311 310 309 307 305 304 304 302 301 300 300 301 299 299 296 295
318 322 320 318 318 319 320 322 320 319 317 320 318 317 316 320 322 320 316 316 313 312 311 311 312 312 311 310 310 309 306 305 304 303 302 302 300 299 300 300 298 297 295 295
317 319 316 320 318 318 319 320 320 315 320 315 315 316 315 316 316 315 314 314 313 311 310 310 311 310 309 308 306 306 304 304 304 303 302 300 300 299 299 298 297 296 296 295
319 319 318 321 322 320 317 318 318 320 313 316 310 312 315 318 317 317 314 313 312 310 310 309 309 308 307 306 304 303 303 303 303 303 301 300 299 299 299 298 296 296 295 294
319 319 317 318 317 315 315 315 314 317 315 316 316 318 316 318 318 314 313 311 310 310 309 307 306 307 306 305 304 303 302 302 302 302 301 300 299 299 298 296 296 295 294 293
318 319 319 318 316 315 314 314 313 314 314 314 313 317 318 315 314 314 313 312 311 309 308 307 305 306 305 303 302 301 300 300 301 301 301 301 300 299 297 297 296 295 293 292
318 318 317 316 317 315 314 314 315 314 315 316 315 317 316 314 312 311 312 312 310 308 307 306 305 304 304 302 300 300 299 298 298 297 297 299 300 298 298 297 295 293 292 290
320 313 312 317 316 315 313 316 315 315 315 315 315 316 313 313 311 310 309 308 308 306 305 305 304 304 303 301 300 297 297 296 296 295 296 297 296 297 297 296 295 293 291 290
315 315 310 309 307 305 317 314 315 315 314 313 315 314 312 311 309 308 307 307 306 305 305 305 305 304 300 298 297 296 295 295 294 295 296 296 296 296 295 295 293 291 290 290
318 311 306 310 313 312 316 316 315 315 314 316 316 314 311 310 310 308 306 306 306 305 304 301 300 299 297 297 296 295 295 294 294 295 295 295 294 294 294 293 293 291 290 289
316 310 308 311 307 306 312 315 314 314 312 316 315 312 311 309 305 307 305 305 305 300 300 299 297 296 296 295 295 295 294 294 294 293 293 293 293 294 293 292 290 290 289 289
312 313 307 305 303 309 314 314 314 312 310 315 312 310 310 308 305 305 304 304 300 300 298 296 296 295 295 295 295 295 294 293 293 292 291 291 292 291 292 292 291 290 288 287
308 309 307 311 313 311 313 314 311 310 314 313 310 309 309 309 307 306 301 299 299 297 296 296 295 295 294 295 295 294 293 292 292 291 290 290 290 290 291 291 290 288 287 286
315 312 311 311 310 310 313 312 313 312 312 310 308 309 308 308 306 301 299 299 297 296 296 295 295 295 295 294 294 293 292 291 291 290 289 289 289 289 289 288 287 287 286 285
314 315 311 313 315 315 313 312 311 309 308 308 308 308 307 306 301 299 298 296 295 296 295 295 294 294 294 294 293 292 292 291 291 289 288 288 288 288 288 287 286 285 285 284
312 315 315 311 314 314 313 312 310 309 308 308 308 307 302 300 299 296 295 295 294 294 294 294 294 294 294 293 293 292 292 291 290 288 287 286 285 286 286 286 285 285 284 284
315 313 311 309 313 313 312 310 310 309 308 307 306 301 301 296 295 294 294 294 293 293 294 293 294 294 293 292 291 292 291 290 289 287 286 285 285 286 286 285 285 284 283 283

GFSCGP_925_thetae_024.txt.gz
Theta_e
317 316 316 315 315 315 316 316 316 316 317 317 314 316 317 316 313 317 319 319 318 317 317 317 317 317 321 322 318 317 316 318 317 315 315 314 314 312 312 311 310 309 308 306
316 317 316 316 318 319 318 318 318 317 317 315 314 315 316 315 316 319 320 319 318 317 317 316 316 316 316 315 315 315 314 315 315 314 313 313 313 312 310 309 308 307 306 306
317 317 317 319 318 320 321 319 320 319 318 316 314 316 317 318 318 319 318 318 318 317 317 315 315 315 315 315 315 315 315 315 314 314 314 313 313 311 310 308 307 305 305 304
317 317 318 319 319 318 323 320 320 319 317 317 315 317 317 317 317 316 316 316 317 318 316 315 315 316 316 316 316 315 315 315 314 314 313 312 311 310 307 306 305 305 304 302
319 320 320 320 320 319 321 320 320 320 319 319 320 316 317 318 319 318 316 316 316 316 316 315 316 317 317 316 316 315 315 314 314 313 312 311 310 308 306 306 305 304 301 299
318 318 319 319 319 319 319 321 321 321 319 321 325 319 319 317 318 318 317 316 315 313 313 314 316 317 317 316 316 315 313 312 313 312 311 311 309 306 305 304 303 300 299 299
320 320 319 319 321 319 317 321 321 324 322 323 326 325 323 319 318 318 317 314 313 312 312 313 315 316 316 316 315 314 313 311 310 310 309 308 306 305 304 303 301 300 299 299
322 323 319 319 319 320 321 320 318 329 322 320 319 324 321 319 319 317 316 314 314 313 312 312 313 314 314 313 313 313 311 309 308 307 306 304 303 302 301 301 300 299 299 298
322 321 319 318 318 319 321 318 317 319 317 317 320 320 319 318 319 318 319 318 315 311 310 310 311 311 312 312 311 310 309 308 306 305 304 303 302 301 300 300 300 300 299 296
319 321 319 318 319 318 316 316 320 315 319 322 318 322 322 320 319 317 315 313 312 312 311 309 310 310 310 310 309 308 308 305 304 304 303 303 302 300 300 300 300 300 298 296
319 319 318 320 317 318 318 319 317 315 314 318 317 315 313 319 320 315 313 312 312 311 310 310 309 308 307 307 306 305 305 304 304 303 303 302 301 300 299 299 299 299 297 295
316 316 315 320 317 317 317 319 316 313 316 313 312 313 315 314 314 313 314 312 311 310 309 307 307 307 306 305 303 304 302 302 302 303 303 302 300 299 299 299 299 298 296 296
316 315 315 319 319 318 317 317 318 315 310 314 309 311 313 315 314 313 312 311 310 308 307 305 305 306 305 304 303 302 302 301 301 301 301 300 300 299 299 299 298 297 296 294
317 317 315 318 319 314 314 314 316 315 312 314 312 314 315 315 313 312 311 309 307 306 306 305 304 305 304 302 301 300 299 299 298 298 296 297 298 299 299 298 297 296 295 295
315 317 317 315 314 314 314 313 312 313 312 313 312 314 316 314 313 312 311 309 308 307 306 305 304 303 303 302 301 298 297 296 296 295 296 296 296 295 296 297 297 296 295 293
316 315 313 313 316 315 313 312 313 314 313 314 315 317 314 312 310 310 311 308 308 307 306 304 303 303 304 302 297 296 296 295 295 294 296 296 295 295 295 295 295 295 294 292
316 310 308 310 313 312 311 314 315 314 313 314 313 313 311 311 310 309 308 307 307 306 305 304 304 304 301 297 296 295 295 295 294 296 295 294 293 293 293 293 294 294 292 290
312 311 305 305 303 302 311 312 313 313 314 314 313 311 310 309 308 306 305 305 305 304 304 302 300 297 297 296 295 295 295 294 294 294 293 293 293 292 293 292 291 291 291 289
313 305 306 303 309 306 313 315 314 313 313 315 313 311 310 308 307 306 305 305 305 304 302 298 296 296 295 295 294 294 293 294 293 293 292 292 291 291 292 292 291 290 290 289
312 305 303 309 301 302 306 314 312 311 312 315 313 310 309 307 303 304 304 304 304 300 297 295 295 295 294 294 294 293 293 293 292 292 291 291 291 291 291 292 291 291 289 288
309 304 306 297 300 306 307 313 311 312 310 313 311 309 307 306 304 304 305 303 299 296 295 295 295 294 294 294 294 293 293 292 292 291 290 290 289 289 289 291 291 290 288 286
309 309 306 303 301 309 309 312 311 309 311 311 309 307 307 306 306 306 300 298 296 294 295 294 294 294 294 294 294 293 292 292 291 291 290 289 289 288 288 288 288 287 286 285
311 308 309 310 310 308 309 311 309 310 310 308 307 307 307 307 306 300 297 295 294 294 294 294 293 293 294 293 293 292 292 291 291 290 289 288 288 288 287 286 286 285 284 284
311 312 310 311 312 311 311 312 311 310 308 307 308 308 308 307 300 295 294 293 293 293 293 293 293 293 293 293 292 292 292 291 290 289 288 287 286 285 286 285 285 284 284 283
308 313 313 309 312 312 312 311 308 307 306 308 308 307 305 297 294 294 293 292 292 293 293 293 293 293 293 292 292 291 291 291 289 288 287 286 285 285 286 285 284 283 283 283
312 312 310 309 310 310 311 308 307 307 308 308 306 297 295 294 293 293 292 292 292 292 292 292 292 292 292 291 291 290 290 289 289 288 287 286 284 285 286 284 284 283 283 283

GFSCGP_925_thetae_027.txt.gz
Theta_e
315 315 316 315 314 315 315 315 315 315 315 313 314 313 313 310 314 317 318 318 317 316 315 316 316 326 330 329 326 327 327 323 316 315 314 313 312 311 310 309 308 308 307 307
315 317 316 316 318 318 317 315 317 317 316 314 313 313 317 316 317 318 318 317 316 315 314 314 315 319 320 318 316 316 316 315 315 314 313 313 311 310 309 308 308 307 306 304
316 316 317 317 317 320 320 318 319 319 315 313 314 314 316 318 318 318 316 316 315 315 314 314 314 315 316 315 314 314 314 314 314 314 313 312 311 310 307 306 305 304 304 303
316 317 318 318 318 319 323 320 319 318 315 315 313 317 318 316 316 317 317 316 315 315 315 315 314 313 314 314 315 315 314 314 314 314 314 313 312 310 306 305 304 304 302 301
319 319 319 319 319 318 320 319 318 318 316 317 320 316 316 317 318 318 316 316 316 316 315 313 314 314 314 314 314 314 314 313 313 312 312 312 311 309 306 305 305 303 301 299
318 317 318 318 318 318 318 320 319 319 318 320 323 316 317 317 318 317 316 317 317 315 314 314 314 315 314 313 313 313 313 313 312 312 311 310 309 307 306 304 304 303 301 299
319 319 317 318 321 318 317 319 320 323 321 322 320 322 318 317 316 317 316 314 313 313 313 312 314 314 314 313 312 312 312 311 311 310 309 308 307 305 304 303 302 301 300 299
320 321 319 317 318 319 320 318 318 328 321 319 318 323 320 318 315 315 314 313 312 311 311 311 312 311 312 313 312 311 310 309 309 308 306 304 304 303 302 301 301 300 299 299
320 320 318 317 317 318 320 317 316 317 314 317 319 320 318 318 317 316 315 314 312 309 309 308 309 310 310 310 309 308 308 307 306 304 303 303 303 302 301 300 300 299 299 299
319 321 318 317 318 317 315 316 319 313 317 321 317 321 319 318 318 317 314 312 310 309 308 307 308 309 309 308 307 307 308 306 305 304 303 303 302 301 300 300 299 299 299 299
318 316 316 319 316 318 317 317 315 314 313 316 315 315 311 317 317 314 312 311 311 310 309 307 307 306 306 304 304 304 304 304 303 302 302 302 301 300 299 299 299 299 299 297
316 314 315 319 315 316 316 317 313 309 314 311 310 312 311 314 314 313 312 311 309 308 306 306 306 305 304 303 303 303 302 301 301 302 301 300 299 298 298 298 298 298 297 297
315 314 315 318 317 315 318 316 315 311 309 314 308 310 313 313 313 312 311 309 307 306 305 304 304 304 303 302 302 301 299 299 299 299 296 296 296 296 295 295 294 296 296 296
314 315 313 316 316 314 313 313 315 313 311 312 310 312 314 313 312 310 309 307 306 305 305 303 303 303 303 301 300 299 297 296 296 295 295 295 295 295 295 295 295 295 295 295
313 315 316 313 313 313 313 312 312 313 312 312 311 312 312 312 311 310 308 306 306 306 306 304 303 302 302 302 298 296 296 295 295 294 295 295 294 293 292 292 291 293 294 294
313 313 311 314 314 313 313 311 309 309 311 312 312 315 312 311 309 310 309 307 307 307 305 304 303 303 302 297 296 296 295 295 294 294 295 294 293 292 291 292 292 293 294 293
312 309 306 306 310 308 306 308 312 313 312 311 313 312 311 310 309 309 307 306 306 305 304 303 302 300 297 296 295 295 295 294 294 295 294 293 293 291 291 292 291 290 291 290
310 307 300 303 302 302 308 309 311 311 312 313 312 311 310 308 308 306 305 305 304 303 302 300 297 296 295 295 294 294 294 294 294 293 292 292 291 290 290 292 290 290 290 289
310 304 305 303 305 305 309 313 312 312 311 312 311 309 309 307 306 306 303 302 302 302 301 296 295 295 294 294 294 294 293 293 293 292 292 291 290 290 290 291 292 290 290 288
307 302 303 305 300 300 305 312 311 310 311 312 310 309 308 306 304 305 303 302 302 298 295 294 294 294 294 294 294 293 292 292 292 292 291 290 289 289 289 289 291 291 289 287
308 302 303 296 299 304 305 311 310 311 307 311 310 309 306 306 304 303 303 303 299 295 294 294 294 293 293 294 293 293 293 292 292 292 291 290 289 288 288 289 290 289 288 286
310 311 309 305 303 310 307 310 311 308 309 310 308 307 306 306 305 305 302 295 294 293 293 293 293 293 293 293 293 292 292 292 292 291 290 289 288 287 287 287 287 286 285 285
310 307 308 308 309 306 306 310 308 308 310 309 307 306 306 306 306 300 295 294 293 292 293 293 293 293 293 293 292 292 292 291 291 290 289 288 287 287 286 286 285 285 284 283
310 308 307 309 309 309 307 309 310 309 309 306 306 306 306 307 299 296 293 292 291 292 292 292 292 292 292 292 292 292 291 290 290 289 288 287 286 285 285 285 284 284 283 283
308 310 310 308 309 311 311 310 309 307 306 307 307 306 305 301 294 293 291 291 291 292 292 291 292 291 291 291 291 289 289 290 289 289 288 287 285 284 285 284 284 283 283 283
309 310 308 309 309 310 309 309 306 306 306 306 304 298 295 294 292 292 291 292 292 291 291 291 290 290 291 290 288 288 289 289 288 288 288 287 285 284 285 285 284 283 282 283

GFSCGP_925_thetae_030.txt.gz
Theta_e
314 314 314 313 312 312 313 314 314 313 313 311 314 317 315 311 315 317 317 316 315 314 313 316 320 325 327 328 328 327 326 319 316 313 313 313 311 311 310 310 309 309 308 306
314 315 315 316 315 315 314 314 316 316 313 312 315 315 316 316 317 317 316 315 314 313 313 315 316 321 322 323 325 326 322 316 314 313 313 313 311 310 309 308 307 306 306 305
315 315 315 317 317 318 319 317 318 317 314 311 314 314 317 316 317 316 315 314 313 313 314 314 316 315 316 315 314 314 313 313 313 314 313 312 311 308 307 306 306 306 306 304
316 317 316 316 317 317 320 318 317 316 313 316 312 316 318 316 317 317 316 314 313 313 314 315 314 312 312 312 313 313 313 313 313 313 313 313 311 310 307 306 305 305 303 301
319 318 318 317 318 317 319 317 317 316 316 316 319 317 316 318 320 318 316 315 313 313 314 312 312 312 313 313 313 314 314 313 313 313 312 312 311 309 306 306 306 304 301 300
317 316 316 317 317 316 316 319 317 317 316 319 322 315 316 317 318 318 316 315 314 314 313 312 312 313 313 313 314 314 313 313 313 312 311 311 310 308 306 305 304 302 301 300
318 318 316 317 319 317 316 318 319 322 319 322 318 318 316 314 315 317 316 315 314 312 311 311 312 312 312 311 312 312 312 312 311 310 309 308 307 305 304 303 302 301 300 299
319 320 318 316 318 319 317 317 319 326 322 320 317 322 319 316 314 315 315 314 312 311 311 312 313 312 312 311 311 311 311 310 309 308 307 305 304 303 303 302 301 300 300 299
319 319 317 316 316 317 318 316 314 317 314 316 318 319 317 315 315 315 315 313 312 310 310 309 310 310 310 309 308 309 309 308 307 306 304 303 303 302 302 301 300 300 299 299
318 321 316 316 317 315 315 315 317 312 317 320 316 318 319 318 317 315 314 313 310 309 307 306 307 308 308 307 306 306 307 306 305 304 303 302 301 300 299 298 298 298 298 298
316 315 315 317 316 317 317 316 312 313 311 314 313 317 311 317 316 316 313 311 309 308 306 305 305 306 305 304 303 304 304 303 302 302 302 301 300 298 296 296 295 293 294 295
314 312 315 318 315 315 315 316 311 308 312 310 310 311 311 312 314 313 311 310 308 306 304 304 305 304 303 302 303 303 302 301 299 300 300 296 296 295 294 294 294 295 294 294
313 314 316 315 312 313 316 315 311 308 308 313 308 309 312 311 311 311 309 308 306 304 303 303 303 303 302 301 302 301 299 298 297 296 295 295 295 294 294 293 292 292 292 293
312 313 313 315 313 313 314 315 313 311 309 310 310 310 313 314 312 310 308 306 305 304 303 302 302 302 301 300 299 298 297 296 295 295 295 295 294 293 292 292 291 291 291 293
311 314 314 313 312 312 311 311 313 313 311 312 310 310 309 311 311 309 307 305 305 304 304 303 302 302 301 301 298 296 296 295 295 294 294 295 293 293 292 291 291 291 292 292
311 312 310 315 312 311 312 310 309 309 309 310 310 310 307 310 308 308 307 306 306 305 304 302 302 302 301 297 296 295 295 294 294 293 294 294 292 292 291 290 291 291 290 290
310 308 307 309 307 305 306 308 309 309 309 308 311 309 310 310 309 308 306 306 305 304 303 302 302 299 297 296 295 294 294 294 293 293 294 292 292 291 290 290 291 289 290 290
307 305 299 302 301 303 307 308 309 309 310 308 311 310 310 309 307 307 305 305 304 303 302 301 297 296 296 295 294 294 293 293 293 293 292 292 291 290 290 290 290 291 289 289
306 303 303 302 304 304 307 309 311 311 310 310 310 310 307 306 306 307 304 303 302 302 301 299 296 296 295 294 293 293 293 292 293 292 292 291 290 289 289 288 289 290 291 290
305 301 303 300 301 300 304 307 309 310 311 309 309 308 307 306 307 308 303 301 301 302 298 294 294 294 293 293 293 293 293 293 292 292 291 291 290 289 288 288 288 289 290 288
307 301 302 296 298 303 303 309 309 311 309 309 308 307 305 307 306 304 301 301 301 295 293 293 293 293 293 293 293 293 292 292 292 291 291 290 289 288 287 287 288 288 288 286
310 311 311 303 299 309 305 311 311 309 307 309 307 305 306 305 302 303 302 294 293 292 293 293 293 292 292 292 292 292 291 292 291 291 290 289 289 288 287 286 286 286 286 284
310 307 306 307 308 306 304 308 307 306 307 308 307 306 306 304 304 299 294 293 292 292 292 292 292 292 292 292 292 291 291 291 290 289 289 288 288 287 285 285 285 284 284 284
308 305 305 308 308 306 305 305 308 307 308 308 307 305 305 306 301 295 294 293 291 291 292 292 291 291 291 291 291 291 290 288 289 289 289 288 288 287 284 285 284 284 283 283
307 307 308 306 307 307 308 308 307 308 306 306 305 305 305 298 296 296 293 291 291 291 291 291 291 290 290 290 290 289 288 288 289 288 288 288 288 286 284 285 284 284 283 283
307 309 307 307 306 308 307 309 307 307 306 306 304 301 297 298 296 292 291 291 291 291 290 290 289 289 289 289 288 288 288 288 288 288 287 287 287 286 284 284 284 284 283 282

GFSCGP_925_thetae_036.txt.gz
Theta_e
319 320 318 317 317 317 317 319 318 317 318 318 319 321 321 325 328 328 327 328 328 327 324 326 328 328 329 329 328 327 325 324 325 317 321 314 311 309 310 309 309 309 309 306
321 320 319 319 318 318 319 319 321 319 317 320 322 323 322 322 328 328 328 328 328 326 327 328 329 329 328 327 328 326 325 325 323 321 317 315 314 312 311 309 309 309 306 304
320 320 319 320 320 320 321 321 321 321 319 321 323 324 324 322 323 325 326 328 327 328 329 330 330 331 329 329 328 327 327 326 322 317 316 314 312 311 310 309 309 307 305 304
321 319 320 321 321 322 322 321 321 320 321 321 321 322 325 325 323 324 326 327 328 329 330 331 329 329 329 328 327 326 323 321 318 316 314 313 315 314 312 311 309 306 305 304
322 321 321 321 321 320 323 320 321 321 322 323 322 322 325 324 326 324 325 328 329 329 328 326 323 323 323 324 323 321 319 317 315 314 315 315 314 313 311 310 307 306 305 304
321 320 321 321 320 321 322 324 324 324 324 324 323 323 319 322 324 326 325 329 328 326 324 321 318 317 317 317 317 316 315 315 315 315 314 314 313 311 309 307 305 304 303 303
322 322 321 321 323 322 323 323 321 324 325 323 324 323 319 322 322 325 327 329 326 324 322 319 318 317 316 317 317 317 316 315 315 314 313 312 309 307 306 306 304 304 303 303
321 323 321 320 323 322 322 322 320 317 321 322 323 325 325 322 320 324 326 326 324 323 321 319 318 318 317 317 317 316 316 314 313 311 310 308 307 306 305 305 304 303 302 301
322 322 319 319 321 321 322 322 322 325 321 326 322 324 323 322 321 324 326 325 324 322 321 320 318 318 317 317 316 316 314 312 309 308 307 306 305 305 304 303 301 299 298 297
323 323 320 319 320 320 323 320 323 323 323 318 318 319 318 323 323 323 326 326 323 322 321 320 319 318 317 316 314 313 311 309 306 305 305 304 303 302 300 299 298 297 296 295
323 322 322 320 321 322 322 323 320 320 321 317 316 315 321 321 323 323 325 324 322 322 321 320 318 317 315 312 311 310 308 306 305 304 303 303 300 299 298 297 296 296 295 295
321 324 326 323 319 319 320 322 321 319 318 321 322 317 315 320 322 322 323 323 322 322 320 319 316 314 311 310 308 306 305 303 301 302 301 300 298 298 297 296 295 295 295 294
321 324 326 324 321 320 321 321 319 318 320 320 328 316 316 319 320 321 322 322 321 320 318 317 314 312 310 307 305 303 301 301 301 300 299 298 298 297 296 296 295 295 294 293
317 323 323 323 322 321 322 321 319 319 320 317 319 315 315 317 319 320 321 321 320 318 316 315 313 311 308 305 303 302 302 300 299 298 298 298 297 297 296 295 295 293 293 293
321 323 321 318 317 317 317 318 319 318 318 319 316 315 314 315 316 317 320 320 319 317 315 314 313 310 307 304 304 303 301 300 298 297 297 297 297 296 295 295 294 293 293 293
318 322 319 320 317 316 317 317 316 318 318 318 318 317 316 315 315 318 319 319 318 316 314 313 312 309 307 305 304 301 299 298 297 297 296 296 296 295 295 294 293 293 293 293
321 321 319 318 314 314 321 318 317 317 318 318 319 318 316 315 315 316 317 317 317 316 314 312 311 307 306 304 301 299 297 297 296 295 295 296 295 294 293 292 292 292 292 292
318 318 317 320 313 327 313 312 313 317 317 316 316 315 314 315 316 316 316 317 316 315 313 312 309 306 304 300 299 297 296 296 295 295 295 294 294 293 293 292 292 292 291 292
314 316 317 327 316 314 312 311 311 313 313 314 314 314 314 315 315 317 315 315 315 314 312 310 307 303 300 298 297 296 296 295 294 294 294 293 293 293 292 292 292 291 291 291
312 314 320 316 332 335 314 312 313 314 315 312 315 315 316 315 319 314 315 314 314 312 311 307 301 299 297 297 296 296 295 294 293 293 293 293 292 292 292 292 291 290 290 290
321 320 325 320 327 319 313 310 313 316 315 314 315 316 316 317 315 315 314 313 312 310 306 299 297 296 296 295 295 295 294 293 293 293 292 292 291 291 291 291 290 290 289 289
321 324 325 317 327 326 311 314 319 317 316 313 315 316 316 316 313 312 312 311 307 303 298 297 296 296 295 294 294 293 293 293 293 292 291 291 291 291 290 290 290 289 289 288
320 319 320 318 319 313 312 316 315 314 315 315 315 315 314 314 312 310 309 306 301 298 296 297 298 295 294 293 292 292 293 292 292 291 291 291 291 290 290 290 289 289 288 288
315 312 317 315 314 314 313 313 312 312 313 313 313 313 314 314 313 308 303 300 299 297 297 295 295 294 293 292 291 292 292 291 290 290 290 291 291 290 289 289 288 288 288 287
315 313 315 316 315 313 313 312 312 313 314 313 313 313 313 313 311 304 301 300 297 294 294 295 294 293 292 291 291 291 290 290 290 290 290 290 290 290 289 289 288 288 287 286
312 315 317 318 312 313 314 313 312 313 314 313 313 309 308 309 304 302 298 295 295 295 295 293 292 291 291 291 290 290 289 289 289 289 290 290 290 289 289 288 288 287 286 285

GFSCGP_925_thetae_039.txt.gz
Theta_e
322 321 320 319 319 319 318 317 316 317 317 317 317 319 321 325 325 327 329 329 328 327 326 327 328 327 327 332 331 329 328 325 322 319 319 318 317 312 312 311 312 312 312 309
320 320 320 319 318 318 317 320 319 319 317 318 317 319 321 323 324 325 326 329 329 329 329 329 330 330 330 332 330 330 328 325 327 320 322 321 317 315 315 313 313 312 310 308
322 322 321 319 319 319 319 320 322 321 319 319 321 322 323 323 326 327 327 327 328 330 330 331 331 331 331 330 329 330 328 327 325 324 320 318 317 315 314 313 313 311 308 307
323 322 321 320 319 320 322 322 321 321 322 321 322 321 323 325 326 327 328 329 329 329 330 331 332 332 331 331 331 328 326 325 323 319 318 317 316 315 315 314 313 311 308 307
322 321 320 319 322 322 324 322 322 320 320 322 323 320 324 326 326 326 327 329 329 330 331 333 333 332 331 329 328 326 325 322 319 318 317 317 317 317 315 314 313 310 308 306
322 322 322 323 322 321 323 323 323 322 321 325 322 322 321 325 325 326 326 328 330 331 331 329 329 327 325 326 325 323 321 319 318 317 318 317 316 314 313 312 309 307 305 304
322 322 323 322 322 323 322 323 326 326 324 324 324 323 321 323 324 324 327 328 330 330 329 326 325 323 323 323 322 320 319 318 317 318 317 315 314 311 309 308 306 305 304 303
321 325 322 322 323 323 323 322 324 322 321 321 324 320 325 325 323 325 327 328 329 328 327 324 321 320 320 320 320 319 318 318 318 316 314 312 309 307 307 306 305 303 303 301
324 322 322 322 322 321 323 321 324 324 329 325 319 321 325 324 324 326 328 329 328 327 325 322 320 320 320 320 320 319 318 317 315 313 310 308 306 306 305 304 303 301 300 299
322 323 321 321 322 322 323 323 323 322 323 321 319 318 322 323 323 325 328 329 328 326 324 322 321 320 320 320 320 319 317 315 312 310 308 306 306 305 303 301 301 300 298 297
321 321 324 322 322 320 324 323 322 322 323 322 318 319 319 319 322 323 326 327 327 326 324 323 322 321 320 320 318 317 315 311 310 307 306 305 304 302 301 300 299 298 297 296
323 322 322 322 322 322 322 323 323 324 320 321 325 320 318 319 320 322 324 326 326 325 324 323 322 321 320 318 317 314 311 309 307 304 303 304 302 301 300 299 298 297 296 295
324 320 321 323 323 322 322 321 321 321 321 321 329 320 318 318 318 319 321 323 324 324 324 323 322 321 319 316 314 311 309 306 304 303 303 302 301 300 300 298 297 297 296 295
320 320 321 323 321 323 325 323 322 321 324 320 319 318 317 318 318 317 319 320 322 323 323 323 322 320 317 315 312 309 306 304 304 303 302 301 300 300 298 297 297 296 295 295
323 324 322 321 321 321 321 320 321 321 321 323 319 318 316 315 315 317 317 319 321 322 322 321 320 319 316 313 310 307 306 304 303 302 300 300 299 298 297 297 296 295 295 295
322 324 323 324 322 321 321 320 319 318 319 319 318 317 317 318 317 317 316 318 319 321 321 319 318 317 314 311 308 308 306 303 301 300 300 298 297 297 296 296 295 294 294 294
325 324 323 321 318 318 322 320 318 318 318 319 320 319 318 318 317 316 316 317 318 319 319 319 318 316 313 310 308 306 303 301 300 299 298 297 297 296 295 295 294 294 294 294
325 325 323 322 318 326 316 314 314 316 317 317 317 316 316 315 317 317 317 317 318 318 318 318 316 314 312 309 306 302 302 300 299 298 296 296 296 295 294 294 294 294 294 293
319 321 322 328 319 317 315 313 314 314 315 315 315 314 315 316 317 317 317 316 316 317 317 316 315 313 310 305 302 301 299 298 297 296 295 295 294 294 294 294 294 294 293 292
316 318 321 319 328 330 319 315 315 315 317 314 314 314 314 316 318 318 316 315 316 316 315 315 313 310 306 302 300 299 299 298 296 295 294 294 294 293 293 293 293 293 292 292
324 324 327 324 329 324 317 314 315 317 319 316 315 315 316 316 318 318 315 315 315 315 314 313 309 304 302 300 299 300 298 296 294 294 294 293 293 292 292 292 292 292 292 291
324 328 326 327 327 326 314 315 317 320 315 316 316 315 318 318 317 315 315 315 315 314 310 305 303 300 298 299 298 297 296 294 294 293 293 293 292 292 292 292 292 292 291 291
323 322 324 321 321 316 314 314 315 315 315 315 315 316 316 316 316 315 314 313 311 308 303 301 299 299 297 295 295 293 293 294 293 293 292 292 292 292 292 291 291 291 290 290
319 317 318 317 315 315 314 314 314 315 315 315 315 315 315 316 316 315 311 309 305 302 301 300 298 296 296 294 293 293 293 292 292 291 292 292 292 292 292 291 291 290 289 289
319 317 317 317 316 315 314 315 316 315 315 316 316 316 314 315 315 313 307 304 302 298 297 296 296 295 294 293 292 292 292 291 291 291 291 291 291 292 292 291 291 290 289 288
316 318 320 320 316 317 317 316 314 315 314 313 314 312 309 310 309 306 302 298 297 296 295 294 294 293 293 292 292 291 291 291 291 291 291 291 291 291 291 290 289 289 288 288

GFSCGP_925_thetae_042.txt.gz
Theta_e
322 322 323 322 320 320 320 319 320 318 319 318 318 319 319 322 325 328 327 326 325 323 323 324 325 324 330 333 330 329 327 324 321 320 318 318 316 317 313 313 311 312 313 310
324 321 321 321 320 320 319 321 321 317 317 317 318 317 320 321 324 327 328 327 327 326 324 328 328 327 333 333 332 329 327 326 324 323 320 319 318 315 314 313 313 313 311 309
323 321 322 320 319 318 319 324 324 322 318 316 318 317 320 321 322 324 327 328 328 328 329 330 330 330 329 334 331 330 328 326 326 322 324 322 317 316 316 314 314 313 310 308
323 323 323 322 319 319 322 324 322 322 321 319 323 323 321 322 323 324 325 326 328 329 330 330 331 331 333 333 331 330 329 327 327 325 321 319 317 316 315 314 314 311 309 309
325 324 323 323 321 321 323 323 324 321 320 325 323 325 326 323 323 325 328 328 328 329 330 330 332 333 331 330 330 331 329 326 324 320 318 317 318 316 315 314 314 312 310 309
323 322 323 321 321 321 324 323 323 322 323 327 325 327 326 325 326 326 326 328 328 330 330 331 333 333 331 331 331 329 326 325 320 319 318 317 318 315 314 313 312 310 308 305
321 320 322 322 321 322 321 321 328 331 333 330 321 322 323 326 326 326 326 328 329 330 331 332 332 332 330 328 328 327 324 320 319 318 318 318 316 314 310 310 309 307 305 304
321 324 322 321 321 325 324 322 331 331 333 329 324 323 324 325 324 324 326 326 330 331 331 329 329 327 327 326 324 323 321 319 319 318 318 316 313 310 308 308 307 305 303 302
323 324 323 322 321 323 324 323 323 323 331 335 320 317 326 324 324 325 326 328 330 330 329 327 326 324 324 323 322 320 319 319 318 317 315 311 309 307 307 305 304 303 301 300
324 328 325 323 321 321 320 321 325 323 325 324 319 319 327 324 323 324 328 329 330 328 327 325 322 322 321 321 321 320 320 318 317 314 311 309 308 306 304 304 302 301 300 298
322 325 326 323 322 319 324 323 320 319 326 329 330 321 319 320 322 323 326 329 329 328 327 324 322 321 321 321 322 321 320 317 314 311 310 307 306 304 303 302 300 299 298 297
322 323 327 324 322 322 321 322 323 335 325 327 332 324 319 319 320 322 323 326 328 328 326 324 322 322 322 321 321 320 319 315 312 310 307 305 304 303 302 301 300 298 297 297
323 324 326 322 322 323 322 320 320 322 327 326 335 325 319 318 317 319 320 323 326 327 326 324 323 322 322 321 320 319 316 312 310 306 305 304 304 302 301 300 298 298 297 296
323 323 321 324 320 322 324 322 320 322 332 326 325 319 318 319 319 318 319 320 322 325 324 324 323 323 322 321 319 316 312 310 306 305 305 303 302 301 300 299 298 297 296 295
323 321 320 318 319 320 322 322 321 321 322 325 324 320 318 319 318 318 318 319 319 320 323 323 324 322 321 319 317 313 311 307 306 305 303 302 300 300 299 298 297 297 296 295
323 325 324 325 323 321 321 320 319 319 320 318 319 320 319 318 318 318 317 316 317 318 321 322 322 322 320 318 314 312 308 307 305 304 302 300 299 298 298 297 297 296 295 295
325 328 329 329 321 318 321 320 319 318 319 319 320 320 319 318 317 318 317 317 317 318 318 321 320 320 318 316 313 310 308 306 303 301 300 299 298 298 297 296 295 294 294 294
327 329 332 331 319 326 318 316 314 315 314 315 316 316 315 317 317 317 317 317 318 318 317 318 319 318 317 314 311 309 306 302 300 300 299 297 297 296 296 295 294 294 294 294
324 327 328 330 324 320 318 316 315 315 315 315 314 314 314 315 316 318 317 317 316 316 317 317 317 316 315 312 308 305 302 301 299 298 297 296 295 295 294 294 294 294 294 293
318 324 330 325 330 327 321 315 315 315 320 316 315 316 316 315 321 320 317 316 315 314 315 315 316 314 311 306 303 302 300 299 298 295 295 295 294 294 293 293 293 293 293 293
325 327 326 326 330 327 318 315 315 321 324 317 316 316 317 318 320 318 316 316 315 315 315 314 311 308 304 302 300 300 298 297 296 295 294 294 294 293 293 293 292 292 292 292
326 330 327 331 327 326 315 315 319 321 318 317 316 317 318 318 318 318 315 315 315 314 309 307 303 300 298 298 297 296 296 295 294 294 294 293 293 292 292 292 292 292 292 292
327 325 330 326 327 319 315 315 316 317 316 317 317 316 316 316 315 316 316 314 311 306 304 302 299 298 296 295 294 294 294 294 294 293 292 292 292 292 292 292 292 292 291 290
320 319 324 321 316 316 315 315 317 316 317 316 316 316 317 316 316 315 312 308 303 300 300 298 297 297 296 294 293 294 293 292 292 292 292 292 292 292 292 292 292 292 292 290
321 319 318 318 318 316 318 318 316 316 316 315 315 312 311 313 312 308 305 301 299 297 296 296 295 294 294 294 294 293 292 292 292 291 291 292 291 291 292 292 292 291 290 289
318 319 325 326 318 319 317 312 312 311 310 309 310 306 304 304 302 299 298 296 296 295 295 294 294 294 294 294 293 292 292 291 291 291 291 291 291 291 291 290 290 289 289 289

GFSCGP_925_thetae_045.txt.gz
Theta_e
323 319 319 319 320 319 318 318 317 317 318 318 321 319 320 320 323 323 322 322 320 318 322 325 327 328 330 330 330 330 328 326 323 321 320 319 318 316 315 315 313 312 312 311
323 323 322 321 321 320 320 320 320 319 316 315 314 316 317 319 322 323 322 319 317 318 321 322 325 330 331 330 329 329 327 322 321 321 319 318 316 316 316 312 312 313 311 309
324 322 322 321 322 321 323 323 321 322 322 317 315 315 316 317 320 323 323 322 321 320 322 324 326 331 330 329 328 328 325 323 321 322 321 318 317 316 312 313 313 313 310 309
323 322 322 322 323 322 324 322 323 322 322 320 320 320 321 317 319 323 324 323 323 322 325 325 326 330 331 330 328 327 326 326 324 325 321 320 315 314 314 314 313 312 310 308
324 323 322 323 323 322 321 321 323 323 323 323 322 321 320 321 319 320 320 321 323 323 326 326 327 331 332 330 329 328 328 327 326 325 323 317 316 316 315 314 314 312 310 309
320 320 322 322 322 322 322 321 323 324 325 323 323 323 323 321 321 324 323 322 322 323 326 327 329 331 332 331 330 329 328 326 327 324 321 318 317 316 315 314 313 312 310 309
321 320 322 322 321 322 322 322 326 326 327 327 324 323 323 323 321 322 321 321 322 323 324 328 330 330 329 330 330 329 329 327 325 320 318 317 316 315 314 313 311 307 304 303
322 323 322 322 321 323 321 324 323 330 330 326 324 326 323 322 321 321 322 321 322 326 327 330 330 329 330 330 330 329 326 322 320 318 318 317 314 312 310 309 306 304 304 302
325 325 324 323 323 321 324 324 324 326 325 322 320 318 322 322 323 322 322 323 326 326 325 326 326 328 328 329 329 327 320 320 319 318 318 315 313 310 308 307 306 304 304 301
323 327 324 324 323 321 322 320 322 321 320 321 320 320 325 323 324 324 324 326 326 325 323 323 322 324 325 325 323 322 320 319 318 318 315 311 309 307 305 304 304 304 302 300
322 322 324 323 325 321 321 321 321 319 322 322 322 319 318 320 320 322 323 325 325 323 322 320 319 322 323 323 322 321 320 318 318 314 311 309 307 305 304 304 302 301 299 298
322 322 326 326 322 321 319 321 323 319 321 320 317 318 316 317 318 319 321 326 324 324 321 319 317 319 320 321 321 320 319 317 313 311 309 307 305 304 303 302 301 300 298 297
322 321 323 323 322 322 321 320 319 320 320 321 317 318 315 315 315 317 317 320 324 323 321 319 317 318 319 320 321 320 317 315 311 310 308 306 305 304 303 301 300 298 297 297
322 323 321 320 318 318 322 321 320 319 317 319 318 320 317 315 314 314 315 316 319 323 323 320 319 319 320 320 320 319 315 312 309 307 306 305 304 303 301 300 298 298 297 296
321 321 319 318 320 320 320 321 321 321 321 320 319 320 318 316 314 314 314 315 316 318 320 319 319 318 320 319 318 315 311 309 306 306 305 304 303 302 299 299 299 297 297 296
321 322 321 323 322 319 317 318 318 317 317 318 317 318 316 315 313 313 312 312 313 313 316 318 319 319 318 317 314 311 307 306 306 305 304 300 299 299 300 299 297 296 296 295
323 322 318 323 315 315 313 316 316 317 317 316 317 315 313 313 314 314 312 313 314 313 314 317 317 318 318 315 312 308 307 306 306 301 299 298 299 299 297 296 296 295 294 294
323 323 316 316 313 312 316 314 313 313 313 312 312 311 312 312 312 312 311 312 312 313 313 314 315 316 315 312 309 307 306 303 300 299 298 297 297 297 296 295 295 294 294 294
324 318 318 314 315 317 316 314 315 314 314 313 313 312 312 312 312 314 312 312 311 311 311 313 314 311 309 307 304 302 301 299 298 298 296 295 295 295 294 294 294 293 293 293
319 319 312 315 316 312 317 314 314 313 316 315 314 314 315 313 313 315 312 312 311 310 308 306 303 302 302 301 301 298 297 295 295 295 295 295 294 294 293 293 293 293 292 292
312 314 312 309 311 316 318 314 314 312 314 315 314 314 314 315 315 313 312 311 307 303 299 298 297 297 297 297 297 296 296 295 295 294 294 294 293 293 293 292 292 292 292 292
316 317 311 316 319 320 313 314 314 316 313 313 313 313 313 313 313 314 311 305 303 299 297 296 295 295 295 295 295 294 294 294 294 295 295 293 293 293 292 292 292 292 292 292
320 321 318 318 317 317 312 315 314 314 314 314 314 314 314 314 314 309 302 300 298 297 297 296 295 295 293 293 294 294 294 294 294 294 293 292 291 291 292 292 292 292 292 292
319 318 318 314 317 314 317 315 315 314 314 311 309 308 310 310 304 301 300 298 297 296 296 296 295 295 294 294 294 294 293 293 292 292 291 292 292 292 292 291 292 292 292 290
317 315 317 315 317 316 313 313 312 310 309 305 303 303 302 301 301 299 298 297 296 295 295 295 294 294 294 294 294 294 293 292 292 292 291 291 291 291 291 292 291 291 290 289
316 317 312 314 315 314 310 307 306 305 305 304 302 300 299 298 297 297 297 296 295 294 294 294 294 294 294 294 293 292 292 292 291 291 291 290 290 290 291 290 290 289 289 289

GFSCGP_925_thetae_051.txt.gz
Theta_e
320 317 319 319 318 318 318 317 317 317 316 320 320 320 316 326 332 333 331 331 331 332 331 329 328 328 327 325 325 327 325 323 325 327 326 325 323 321 319 319 320 319 317 313
317 318 318 319 320 320 319 319 318 317 317 318 318 320 316 326 332 332 332 328 325 331 329 329 327 325 326 324 325 326 326 327 327 327 325 322 320 318 317 317 315 314 313 310
319 318 319 320 319 320 319 319 319 319 318 315 314 315 316 323 329 330 330 328 323 327 328 327 323 323 323 324 325 326 327 327 327 326 324 320 318 317 315 314 313 313 311 310
319 318 319 320 321 319 320 319 319 320 317 315 314 314 315 316 326 329 329 325 322 324 325 324 323 322 323 324 324 325 326 327 326 325 323 321 319 317 317 316 313 311 311 309
318 320 320 320 320 319 320 319 319 320 320 319 319 318 315 314 322 324 328 325 322 320 323 323 323 322 324 324 324 324 324 325 325 325 323 320 319 319 318 315 312 312 310 308
317 318 318 318 320 320 320 319 319 320 319 320 320 318 317 316 315 317 322 324 321 316 321 321 323 324 325 325 324 324 324 325 326 324 322 320 320 318 315 313 311 312 310 307
318 319 319 320 320 318 318 317 319 320 321 322 320 321 318 318 316 315 317 321 317 315 318 320 323 326 326 325 324 324 323 323 324 323 321 320 321 317 316 313 312 311 308 306
319 320 320 320 320 321 321 318 318 322 323 320 320 325 320 318 316 318 315 316 316 317 319 322 326 327 327 326 325 325 324 324 323 323 322 322 321 319 316 313 312 312 308 304
319 320 321 321 321 319 322 322 318 321 320 320 319 317 316 318 321 319 317 316 318 317 319 323 326 327 327 326 326 326 325 325 325 324 324 323 322 320 315 314 313 310 305 302
318 319 322 322 321 319 319 318 319 318 321 323 317 316 318 321 321 321 318 317 316 320 320 322 326 328 327 327 327 326 327 327 326 326 325 324 322 318 315 312 310 305 302 303
318 317 318 320 320 318 318 318 317 317 315 319 319 318 310 319 319 320 319 318 321 321 323 324 324 327 327 327 327 327 327 327 326 325 323 322 317 314 311 309 305 303 302 302
317 317 319 319 319 319 318 318 319 317 318 316 314 315 312 312 316 318 319 319 322 322 323 324 324 324 326 326 327 327 328 326 325 323 321 315 312 309 305 304 302 302 305 302
318 319 319 319 317 319 322 320 319 317 313 317 316 317 312 310 313 314 317 317 321 321 321 322 321 322 323 323 323 322 322 321 320 317 311 308 306 304 303 302 303 306 301 300
317 319 318 319 318 317 321 320 317 317 316 316 315 316 316 314 313 311 310 312 316 320 320 318 320 320 323 322 320 319 316 316 314 310 307 305 304 304 303 306 303 301 300 297
317 319 317 316 316 316 317 317 317 318 316 317 316 316 315 313 312 309 308 311 314 318 319 318 316 317 319 319 318 315 314 312 310 306 306 305 305 306 306 300 300 298 297 297
316 317 316 320 317 317 318 316 315 315 316 316 316 315 312 311 310 310 310 311 313 316 317 317 316 315 316 317 314 311 310 308 308 307 306 306 305 302 300 298 299 299 296 295
316 317 314 317 313 315 315 314 315 315 314 314 314 312 311 312 311 310 311 311 312 313 315 316 315 314 315 314 312 309 308 308 307 306 304 303 300 298 297 295 295 295 297 298
316 314 310 312 311 313 315 313 314 313 311 309 310 310 311 310 310 309 308 309 310 309 307 306 309 309 310 309 308 306 306 304 302 299 298 298 296 295 296 297 299 299 298 296
316 312 312 313 314 313 316 311 311 312 313 312 310 310 311 311 311 310 306 303 302 300 298 298 300 301 302 302 301 300 298 297 296 295 295 295 296 298 299 298 298 296 294 293
314 312 314 308 314 316 315 313 310 311 313 311 311 311 311 311 310 311 302 300 298 296 296 296 296 296 297 296 296 295 294 294 294 295 296 298 299 299 298 296 293 293 292 292
313 311 315 307 311 312 311 311 310 312 311 311 311 312 311 311 308 302 298 296 295 295 295 295 295 294 294 295 295 295 295 296 297 297 298 299 298 295 293 293 292 292 292 291
318 316 310 309 308 317 311 311 310 309 310 310 310 310 309 304 301 299 297 296 295 294 295 295 295 294 295 296 297 297 297 298 298 296 295 295 293 293 292 292 291 291 291 291
316 316 316 314 313 312 313 312 311 310 311 310 310 309 304 301 299 298 297 296 295 294 294 294 294 294 295 295 295 294 294 294 293 293 292 292 291 291 291 291 291 291 291 290
316 314 315 315 316 315 312 308 307 308 307 307 308 304 302 300 298 297 296 295 295 295 294 294 294 293 293 293 293 293 293 292 292 291 291 291 290 290 290 290 290 289 289 290
316 314 314 314 313 312 309 305 304 303 302 301 300 301 299 298 297 296 295 294 294 293 293 293 293 293 292 291 290 290 290 291 290 290 290 290 290 290 289 289 289 289 290 289
312 315 314 313 313 312 309 304 303 302 301 300 299 298 297 297 296 294 293 294 294 293 293 292 291 290 289 290 290 290 290 290 290 290 289 289 288 287 287 287 288 288 288 288

GFSCGP_925_thetae_054.txt.gz
Theta_e
319 317 316 317 316 317 317 318 316 314 315 319 319 319 322 325 327 326 326 327 329 329 327 327 326 326 325 328 328 326 328 325 321 322 323 325 326 326 325 323 322 321 319 316
316 318 316 317 319 318 318 319 318 316 316 316 316 317 315 323 326 327 327 328 329 330 329 328 327 327 326 327 327 326 327 327 324 322 323 325 326 324 321 320 319 318 317 315
318 318 317 320 318 319 318 319 319 318 316 314 314 314 316 319 329 330 329 329 328 329 330 329 327 326 326 326 327 326 327 328 325 323 324 324 323 320 317 317 317 317 314 311
318 317 317 319 319 318 319 318 318 319 318 316 313 314 313 316 327 331 330 328 328 325 329 328 327 325 325 325 326 326 325 326 323 323 324 324 323 318 317 317 316 315 312 310
317 319 319 319 318 317 318 318 320 319 318 318 317 316 314 314 319 326 329 329 326 323 326 328 327 325 324 323 325 326 325 325 324 324 325 324 321 319 318 317 315 313 311 309
315 317 317 317 319 318 318 319 317 317 317 319 318 316 316 314 315 320 324 328 325 321 321 324 326 324 323 323 324 324 324 324 324 324 324 323 321 318 318 316 313 311 311 307
317 318 318 319 319 318 317 316 319 321 321 321 319 320 317 316 316 314 316 322 325 322 318 320 320 321 321 323 323 324 323 323 324 324 323 322 320 319 319 315 313 311 311 308
317 320 319 319 319 318 319 317 318 321 321 318 318 321 319 317 315 315 313 312 319 319 317 319 320 321 322 323 323 324 323 323 322 322 323 322 320 320 317 315 313 311 311 309
317 318 320 320 320 318 321 319 316 319 318 319 317 316 312 316 320 319 317 315 315 313 314 317 318 322 323 324 323 323 323 323 322 322 324 322 321 320 318 316 314 312 310 305
315 317 320 320 319 318 318 317 319 316 322 323 316 316 315 315 317 317 318 318 315 315 315 316 319 323 324 325 324 324 324 324 323 323 323 323 322 320 320 317 312 310 307 303
315 313 316 319 319 318 318 318 315 315 314 318 318 317 310 313 317 318 317 317 316 315 317 317 320 325 325 325 325 325 324 324 324 324 324 324 323 322 320 315 311 309 305 301
316 313 315 318 318 316 316 317 316 317 318 315 313 314 312 309 311 316 316 317 318 319 318 319 320 324 325 326 326 325 324 324 324 325 324 323 323 320 314 311 310 306 302 304
316 315 315 315 315 318 320 318 317 315 312 316 315 316 311 310 310 309 313 314 315 320 319 320 320 321 324 325 325 324 324 324 324 323 321 317 314 311 307 306 304 303 304 305
315 316 314 316 315 315 321 319 317 317 315 316 314 315 313 313 312 311 310 308 310 316 320 319 319 319 322 323 323 324 323 323 321 317 313 311 307 305 304 303 303 303 303 301
315 316 316 314 314 315 315 316 315 316 315 317 316 314 314 313 310 308 306 307 310 313 318 318 317 317 319 320 319 318 317 314 313 311 308 305 305 304 303 302 302 301 301 298
314 316 315 318 316 315 318 316 314 314 315 314 314 314 311 310 310 310 310 312 314 315 314 314 316 315 316 316 313 313 313 311 309 308 306 305 304 303 303 303 300 298 296 295
314 314 313 318 313 315 315 315 314 314 313 314 315 313 309 311 311 310 309 310 311 310 309 311 311 311 313 312 311 309 308 307 307 306 305 304 303 300 298 298 296 295 296 298
313 313 309 311 311 314 316 313 313 313 312 310 308 310 309 309 308 306 304 308 304 302 301 301 303 303 304 306 306 306 305 304 302 300 299 298 297 296 296 298 299 299 299 298
313 310 311 314 314 313 314 311 311 312 311 309 308 309 309 309 309 307 301 299 298 297 296 295 296 297 299 299 299 300 298 297 297 296 295 296 298 299 299 299 298 299 296 294
312 310 312 308 312 313 312 312 308 309 311 309 309 310 310 309 309 308 299 297 295 295 295 294 294 295 295 295 296 296 295 295 295 296 297 298 298 299 299 298 295 293 293 292
313 309 310 305 310 313 312 311 309 312 312 308 309 309 309 309 305 299 296 295 294 294 294 294 295 294 295 295 296 296 296 297 297 298 299 299 298 296 294 293 292 292 291 291
320 317 310 308 309 318 310 309 311 309 309 308 309 308 308 301 298 297 296 294 294 293 294 294 294 294 295 296 296 297 297 297 296 295 294 293 293 292 291 291 290 290 290 290
320 317 317 316 316 312 310 310 309 307 309 309 309 307 303 300 298 297 295 294 293 293 293 293 293 293 294 295 294 293 293 292 292 291 291 290 290 290 290 289 289 289 289 289
314 312 314 314 315 314 313 309 308 309 309 308 307 303 301 299 297 296 294 294 293 292 293 293 293 292 291 291 291 290 291 291 290 290 290 290 290 289 289 289 289 288 288 288
314 314 314 313 313 312 311 306 305 303 303 302 300 300 299 297 296 295 294 293 292 292 293 293 291 289 289 289 289 289 289 290 289 288 287 286 285 284 284 283 284 284 284 285
312 314 314 314 314 313 311 304 303 303 301 300 299 297 296 296 295 293 292 292 292 292 291 289 289 288 287 287 286 286 286 286 285 284 282 281 280 280 281 282 282 281 281 282

GFSCGP_925_thetae_057.txt.gz
Theta_e
319 320 321 320 319 318 318 319 318 316 316 323 324 323 323 333 333 332 330 329 329 330 328 326 326 325 326 326 326 327 328 328 328 323 321 321 322 323 326 327 325 324 321 320
319 322 320 316 318 319 319 320 320 318 317 318 317 318 317 329 332 330 330 329 328 329 329 327 326 325 325 326 326 326 326 327 327 323 320 320 321 323 326 326 324 322 319 316
321 320 316 319 319 320 319 320 320 320 318 315 316 316 318 322 327 329 328 328 328 330 331 330 327 326 326 326 325 326 326 326 325 322 319 320 322 323 323 321 320 318 316 315
319 317 318 318 320 319 319 318 319 320 321 321 316 322 316 316 326 328 329 329 328 329 329 331 330 328 327 326 325 325 326 326 326 325 321 321 322 322 320 318 319 317 315 314
319 319 319 320 319 318 320 318 320 320 320 321 319 321 320 314 318 325 330 331 331 330 329 330 331 330 328 326 325 325 325 326 326 326 323 321 321 322 320 319 318 315 313 311
316 316 317 318 318 317 318 320 318 319 320 324 320 320 322 319 318 318 321 328 331 330 329 329 330 330 328 326 325 325 325 325 324 324 322 321 321 320 319 317 315 314 312 310
317 318 317 318 320 318 318 320 323 326 326 324 320 321 322 318 317 318 319 321 328 329 328 327 329 329 328 325 325 325 325 325 324 322 321 322 322 320 319 318 318 314 310 309
319 319 319 319 320 321 320 321 326 322 324 321 318 324 321 319 317 317 317 316 316 327 328 326 327 327 327 325 325 325 325 325 324 322 321 324 324 321 318 319 318 315 312 310
319 318 318 319 320 319 321 322 318 322 320 325 321 319 316 316 318 319 320 318 318 319 325 324 324 325 325 324 325 325 325 324 324 322 322 323 323 320 319 321 319 314 310 308
318 319 320 320 319 318 320 318 323 321 324 324 319 318 318 318 320 319 319 321 319 318 317 319 321 322 323 324 324 324 324 324 324 323 321 321 322 320 320 320 316 311 307 308
316 317 317 320 321 321 321 320 318 318 319 322 322 320 317 317 318 320 319 319 320 318 320 318 319 320 323 324 324 324 324 324 324 323 322 321 320 319 320 320 316 312 310 310
317 318 321 320 318 316 318 321 320 325 321 318 319 320 315 315 313 313 317 317 319 322 320 321 320 322 324 325 325 325 324 325 324 323 322 321 320 320 319 317 315 311 308 304
318 317 319 317 317 319 321 319 318 317 317 320 326 323 314 314 315 313 314 315 316 319 324 323 323 324 325 325 325 325 324 324 323 321 320 320 318 317 312 309 308 306 303 301
316 317 319 319 318 318 322 321 318 321 323 323 320 321 319 318 316 316 315 312 311 311 318 324 324 324 323 324 324 323 322 322 321 319 318 314 310 308 308 308 307 306 302 302
319 320 317 315 314 316 318 320 319 320 321 323 322 317 318 317 316 312 311 313 318 318 317 319 321 323 323 322 321 318 316 317 316 314 311 308 308 307 304 302 302 302 303 301
315 319 317 317 315 315 316 316 317 318 317 317 316 317 315 313 311 313 314 317 318 317 316 316 316 318 319 317 315 312 311 310 310 309 307 305 303 302 302 301 301 300 300 298
317 318 318 320 315 316 319 318 316 316 315 318 319 319 313 313 313 312 313 314 313 311 311 312 311 311 312 311 309 309 308 307 306 305 303 301 301 301 300 299 298 295 294 295
317 316 315 318 313 323 320 313 314 317 316 313 312 312 311 312 310 308 307 309 306 305 306 305 306 305 305 305 304 303 302 302 300 299 298 299 298 297 297 297 298 297 297 298
314 314 315 321 320 317 314 313 315 317 317 313 313 310 311 310 310 308 302 301 301 300 299 299 299 300 300 300 300 300 299 299 297 296 297 298 299 299 298 298 298 298 298 296
311 312 320 313 320 322 319 313 310 312 317 312 311 312 313 312 318 315 302 299 298 297 297 297 297 297 298 298 298 298 297 297 298 298 299 298 299 299 299 297 294 293 293 292
317 314 319 314 321 318 312 312 310 319 319 312 311 312 314 314 311 305 299 298 297 297 296 296 297 297 296 297 298 298 298 298 298 299 298 298 297 295 293 292 292 291 290 290
320 319 319 314 318 322 312 309 316 318 310 312 311 312 312 304 301 300 298 297 296 296 296 296 296 296 296 297 298 298 296 295 294 294 293 291 290 290 290 289 289 289 289 289
322 319 321 319 322 316 311 315 311 309 313 311 312 310 305 302 300 299 297 296 296 295 295 295 295 294 294 294 294 293 291 291 291 290 289 289 289 289 289 288 288 288 288 287
315 315 318 317 316 315 313 312 310 310 311 309 310 307 304 302 299 297 296 295 295 295 294 294 293 292 291 290 289 289 290 290 290 288 288 287 286 285 285 284 284 284 284 284
316 317 316 316 315 314 314 312 310 308 307 305 304 303 302 300 298 296 295 295 294 294 292 292 291 290 289 287 286 287 287 287 287 286 284 283 282 282 282 282 282 281 282 282
315 316 318 320 317 318 317 313 307 307 306 304 302 300 299 299 297 296 295 294 293 292 291 291 289 287 285 284 283 283 283 283 283 282 281 280 280 280 280 280 280 279 279 279

GFSCGP_925_thetae_060.txt.gz
Theta_e
322 322 323 320 320 322 321 320 320 320 321 325 324 323 322 330 334 334 330 329 331 331 329 330 328 328 326 324 325 326 326 327 329 328 324 321 322 323 324 326 328 326 325 322
323 323 321 321 321 322 322 320 320 321 321 321 322 321 321 325 332 333 332 329 329 330 331 330 329 328 328 326 325 326 328 329 329 327 323 321 321 323 323 326 325 325 323 321
321 322 321 322 322 323 322 322 321 321 322 321 321 321 321 323 328 331 331 331 328 328 330 331 330 329 328 328 327 327 328 329 328 328 324 322 322 324 324 325 325 323 321 320
321 321 321 321 322 322 322 321 321 321 321 322 321 322 321 321 326 328 330 332 332 329 329 331 331 330 330 329 328 327 328 329 329 328 326 323 321 321 323 325 325 324 320 318
320 321 321 321 321 321 321 321 322 322 323 324 322 322 322 320 321 325 328 330 331 331 330 330 331 331 330 330 329 329 327 328 329 328 327 325 323 321 323 326 324 322 318 314
320 320 321 321 321 320 321 323 323 324 324 325 323 322 321 321 321 321 322 327 329 331 331 330 328 331 331 331 330 330 329 329 329 329 328 328 327 325 325 323 323 322 319 316
320 320 320 321 322 322 322 323 326 327 326 325 323 323 322 321 322 322 323 323 325 329 332 332 330 330 332 332 332 331 330 329 329 330 329 329 328 327 324 323 322 321 318 314
321 321 320 321 322 322 323 323 324 324 324 323 322 321 321 322 321 322 324 323 322 323 330 332 332 330 331 332 332 331 331 331 329 329 329 328 327 326 323 322 322 321 317 313
320 319 320 321 322 322 324 324 323 326 326 327 322 321 321 320 321 323 322 323 324 322 326 330 331 330 331 332 332 332 331 331 330 329 329 328 325 324 322 321 320 318 316 314
320 320 321 322 322 322 324 322 324 325 325 324 322 321 319 319 322 320 320 321 323 324 323 325 327 329 330 331 331 332 331 331 331 330 328 325 324 323 322 320 320 316 317 315
319 320 324 323 323 323 323 324 323 323 323 324 323 321 320 320 320 323 323 322 323 324 325 324 324 324 326 329 329 330 330 329 329 329 328 324 324 324 322 321 317 318 316 311
320 320 321 321 321 321 322 323 324 324 323 324 325 322 320 320 321 319 320 321 323 325 326 325 325 324 325 327 328 328 328 328 328 328 327 324 323 321 321 318 316 315 310 306
320 320 321 321 321 322 322 322 322 322 322 323 329 322 321 320 320 320 320 320 320 322 325 327 327 327 327 327 328 328 328 328 328 327 324 322 321 319 316 313 310 308 305 303
319 320 320 321 319 319 321 321 321 321 324 321 323 321 320 321 321 321 321 320 319 318 318 326 328 328 328 329 329 327 326 325 321 320 319 317 314 313 312 310 308 307 305 303
320 320 320 319 318 318 318 318 319 320 320 320 321 319 321 321 322 321 318 318 321 322 320 322 327 329 329 329 328 323 318 317 317 314 311 309 308 307 306 305 304 303 302 301
320 320 321 320 319 318 318 318 318 319 319 322 321 321 321 321 319 318 318 321 322 323 322 322 324 326 325 324 322 320 318 316 313 311 307 305 304 303 302 302 302 302 300 299
321 321 322 321 320 320 322 321 319 319 321 322 322 321 320 321 319 319 320 321 320 320 319 320 321 321 320 318 317 316 314 313 311 308 306 305 305 304 303 301 298 297 297 297
323 322 323 322 321 331 320 320 320 320 320 321 320 320 319 319 319 317 318 319 317 316 316 316 316 315 314 313 312 311 310 308 306 305 304 302 301 299 299 299 298 298 297 297
322 323 325 331 324 321 319 317 320 321 321 321 321 320 319 316 315 314 311 314 313 312 311 310 310 310 310 309 308 307 305 303 302 302 301 301 301 300 299 299 298 298 297 298
319 320 325 321 326 332 320 320 319 319 323 320 319 318 317 316 320 319 310 308 307 307 307 307 307 307 307 307 306 305 304 303 303 302 301 301 301 300 299 298 296 297 296 295
322 321 327 325 328 324 320 317 316 322 324 320 319 319 318 318 319 315 308 307 306 305 305 305 306 305 305 305 304 304 303 302 301 300 299 298 297 297 296 295 294 293 293 292
324 325 327 325 331 330 316 315 320 322 321 320 319 319 319 316 311 309 307 305 304 304 303 303 304 303 303 303 303 303 301 299 298 297 294 294 293 292 292 293 293 292 292 292
326 323 326 323 325 323 317 321 319 319 320 318 319 318 318 311 309 307 305 304 304 303 303 303 302 302 301 300 300 298 296 296 295 294 293 292 291 291 290 291 290 289 288 287
319 318 323 322 321 320 319 317 317 316 317 316 316 316 313 311 308 306 304 303 303 302 301 300 299 297 296 295 295 294 293 293 292 292 291 290 287 288 286 286 285 286 286 285
321 320 320 323 322 318 318 319 318 316 314 314 314 314 312 309 307 304 303 302 302 301 299 298 297 296 293 292 290 290 291 291 290 288 287 286 285 285 285 284 283 283 283 281
319 320 324 325 322 323 322 320 320 317 315 314 313 312 310 307 305 303 302 301 300 298 297 296 294 291 289 287 286 286 287 287 286 285 284 283 284 283 283 283 283 281 279 279

GFSCGP_925_thetae_063.txt.gz
Theta_e
321 322 323 323 323 321 322 321 320 322 322 322 324 326 324 330 329 331 330 330 331 331 329 328 327 325 324 324 323 323 322 322 325 325 323 321 321 322 322 324 325 328 328 328
323 323 322 322 321 321 321 321 320 321 321 322 322 325 322 324 330 329 331 329 330 331 330 328 328 326 324 324 324 324 323 323 326 326 325 321 319 320 321 323 326 328 328 327
323 323 321 322 321 322 322 322 323 323 324 322 321 322 322 322 327 330 330 329 327 330 331 330 328 328 326 325 325 326 326 325 326 325 325 322 320 320 322 323 325 327 327 326
322 321 321 321 322 322 323 321 321 321 321 322 324 325 325 322 324 328 330 332 330 328 329 331 331 330 330 328 326 326 327 327 327 327 326 324 321 320 321 323 324 326 325 324
321 320 322 322 322 322 322 323 322 322 324 325 325 322 326 322 320 323 328 332 331 329 328 329 331 331 330 330 329 328 327 327 328 328 327 327 324 322 322 323 324 326 325 324
321 320 321 321 321 321 321 322 322 323 324 328 324 324 324 323 320 320 321 326 330 329 328 328 328 330 330 330 330 330 329 328 328 329 329 329 327 326 322 322 327 327 325 323
320 321 321 321 322 322 322 323 326 328 331 328 326 323 324 325 322 322 322 322 326 329 330 329 328 330 330 330 330 331 331 329 329 329 330 330 329 329 327 326 327 325 325 322
321 322 321 321 321 324 324 323 327 331 330 330 323 322 322 322 321 321 323 324 325 325 328 330 330 328 329 330 331 332 332 331 330 331 331 331 331 331 330 328 325 324 324 323
321 320 320 320 321 322 325 325 325 327 325 325 323 322 321 320 320 321 322 323 325 325 325 328 330 330 328 330 332 333 332 332 331 331 332 332 332 332 331 329 326 324 323 322
320 322 320 320 321 322 325 324 325 324 328 327 323 322 322 321 322 320 321 321 322 324 325 327 329 330 331 331 332 333 334 333 332 332 332 332 331 330 329 327 325 324 322 320
320 321 322 323 323 322 323 326 324 326 327 328 325 323 322 320 320 321 322 321 321 323 326 327 327 328 330 331 333 334 334 334 333 333 332 331 329 327 325 324 322 321 321 318
320 321 324 323 320 320 323 323 324 326 324 324 326 326 322 321 321 321 321 321 322 323 324 326 327 327 327 330 331 333 333 334 333 333 333 330 327 325 324 323 322 320 318 314
320 320 323 322 323 322 322 324 324 324 324 325 332 325 321 321 321 321 321 321 322 323 324 325 327 328 328 329 330 331 331 331 330 330 330 327 325 323 322 321 319 316 313 311
321 320 322 323 322 321 321 321 322 323 328 324 323 322 322 321 321 321 321 321 321 322 322 325 326 328 329 330 330 330 331 330 328 325 321 321 319 318 316 314 311 309 307 305
320 321 320 320 320 320 320 320 320 322 322 324 322 321 320 320 321 322 323 322 322 323 322 322 327 328 330 331 329 325 320 319 318 315 313 311 310 309 307 306 305 303 302 302
320 322 321 320 319 319 319 318 319 318 318 319 319 319 320 320 319 321 321 321 323 324 324 324 326 330 331 330 325 319 316 314 312 310 308 306 305 304 303 303 303 302 301 300
322 324 323 324 320 320 324 319 319 319 319 319 320 320 320 321 320 320 321 322 323 324 324 325 327 328 327 325 322 319 316 313 311 309 308 307 307 306 305 304 302 301 300 300
321 322 325 327 326 329 321 320 320 320 319 319 320 319 320 320 320 321 321 323 323 322 323 324 324 322 322 321 319 317 316 313 312 310 309 308 306 304 303 302 302 300 298 298
324 324 327 330 328 321 320 320 320 320 320 320 319 319 319 320 321 320 319 321 320 320 320 319 319 318 317 315 314 312 311 310 308 307 306 305 304 304 302 301 299 300 299 299
321 325 329 327 327 329 321 320 320 320 324 321 320 320 320 321 323 320 318 319 317 315 314 315 315 314 314 312 311 310 309 308 307 306 305 304 304 303 302 301 300 300 300 298
325 327 331 328 328 323 320 320 320 325 325 320 320 320 320 321 321 321 317 315 313 313 312 312 313 312 311 310 310 309 308 307 305 304 304 302 300 300 300 299 298 296 295 294
325 327 331 328 332 331 320 319 322 324 322 322 322 321 321 322 320 317 315 313 312 312 310 311 310 310 309 309 308 307 306 304 303 302 299 298 297 295 296 295 295 294 294 294
327 324 327 325 325 323 320 322 321 322 323 323 323 321 322 321 317 315 313 312 311 310 309 309 309 308 308 308 307 305 303 301 299 298 297 295 294 293 293 293 292 291 290 290
321 321 325 325 323 322 322 321 321 321 322 322 321 321 321 320 316 314 312 311 310 309 308 308 307 307 305 303 302 300 299 298 297 296 294 292 292 290 289 289 288 288 288 287
316 317 320 320 319 318 322 322 321 321 321 320 318 319 320 318 315 313 311 310 309 308 307 306 304 302 301 299 298 297 296 296 294 292 290 289 288 288 288 287 286 285 283 282
315 316 323 324 319 323 322 322 323 323 322 319 318 318 318 316 314 312 310 309 308 306 304 303 301 299 297 295 294 294 293 292 290 289 288 287 287 286 286 286 285 282 282 280

GFSCGP_925_thetae_066.txt.gz
Theta_e
319 319 320 321 322 323 322 321 321 322 323 324 322 323 328 328 329 332 330 331 331 328 329 329 327 323 321 322 321 321 321 323 323 322 323 323 324 322 321 320 323 326 327 326
320 321 320 321 322 321 322 321 321 321 322 321 320 322 326 328 326 327 329 330 331 329 329 327 326 324 322 324 324 324 324 325 324 324 324 322 323 323 322 322 322 327 326 327
322 322 322 321 322 321 321 320 322 324 322 321 322 321 323 323 326 326 329 328 330 330 329 329 327 326 326 325 325 324 324 323 325 325 323 322 321 322 322 322 324 327 327 326
321 321 322 322 322 321 322 321 323 322 322 322 323 325 326 324 323 326 327 329 328 330 329 328 329 327 326 325 325 325 324 323 324 326 326 325 322 321 323 323 324 326 328 327
321 321 322 322 321 321 323 323 324 322 321 323 324 327 326 323 323 323 327 329 328 328 329 329 328 328 326 327 326 326 326 325 325 326 326 325 323 321 320 323 323 327 328 327
320 321 321 321 321 322 321 322 323 323 323 326 324 325 326 324 325 323 326 329 331 329 328 330 330 329 329 328 328 327 328 327 327 328 327 327 325 324 322 323 324 327 326 324
320 320 320 320 321 321 321 322 326 329 330 330 325 326 327 325 324 323 322 329 330 329 328 328 330 331 331 331 330 330 328 328 327 328 329 326 328 326 325 324 325 328 326 325
320 322 321 321 321 322 322 322 328 332 335 335 328 326 322 323 323 321 321 323 325 329 330 328 327 331 331 331 332 332 331 330 329 329 331 331 328 331 328 327 328 328 326 324
320 321 320 321 321 321 324 326 324 332 331 336 328 326 322 322 320 320 322 323 325 325 327 330 329 328 331 331 332 333 332 331 330 330 329 330 330 330 330 331 329 327 325 324
319 324 321 321 321 320 321 324 327 328 334 329 322 322 324 322 321 321 320 322 324 325 326 326 329 330 329 331 332 332 332 333 332 331 331 331 332 333 332 332 330 327 326 325
319 322 323 322 321 321 321 325 327 326 326 331 334 327 325 323 322 321 322 322 323 324 326 327 328 330 330 330 331 333 334 333 333 332 332 332 334 333 332 330 328 327 325 322
320 323 325 322 321 321 321 323 327 330 329 329 332 327 324 324 322 322 322 322 322 323 325 327 328 327 329 332 332 335 335 335 334 334 333 333 333 331 329 327 325 324 322 321
321 321 324 324 323 322 320 322 323 325 326 328 333 327 322 322 322 321 322 322 322 323 323 326 327 328 328 328 331 334 335 335 335 334 332 332 328 326 325 324 323 322 321 318
321 322 323 327 326 323 322 321 325 326 331 329 329 326 325 322 322 321 322 322 322 323 323 323 326 328 329 329 330 332 331 330 328 326 325 322 321 322 321 318 316 315 313 311
323 324 323 320 321 321 322 321 320 320 324 328 325 322 322 322 321 322 324 323 322 321 322 322 326 329 330 331 327 324 322 321 319 315 314 312 313 314 312 311 309 308 306 305
321 324 323 324 321 321 321 321 320 320 320 321 322 323 322 320 320 320 322 322 322 323 324 323 324 329 333 327 321 318 315 313 314 313 310 310 309 308 306 304 304 303 303 302
322 323 323 324 321 321 321 322 320 320 321 320 321 321 320 320 320 321 321 321 322 325 325 325 327 332 327 322 319 315 312 313 312 309 307 306 305 304 303 302 302 302 301 301
325 324 322 327 323 326 321 321 319 320 320 319 319 319 320 320 320 321 321 323 324 325 325 326 328 327 324 320 318 315 313 311 310 309 308 307 306 305 303 303 303 301 300 300
320 327 326 327 326 323 320 321 321 321 321 320 320 320 319 319 323 323 322 322 324 323 324 324 324 323 322 320 318 316 314 313 312 310 309 307 305 304 304 302 300 299 299 299
319 326 328 330 326 328 324 321 320 321 323 321 320 322 321 322 326 324 321 323 322 321 321 321 320 319 318 316 315 313 312 310 309 307 306 305 305 303 302 301 301 300 300 300
323 325 327 326 327 326 322 321 320 324 325 323 322 322 322 323 325 323 320 321 320 318 318 317 317 316 314 313 312 311 310 309 308 306 305 304 303 302 302 301 301 300 297 296
324 326 327 327 326 328 322 321 321 323 325 325 324 323 322 325 322 320 320 319 317 316 315 315 315 314 312 311 311 310 309 307 306 304 303 302 301 300 298 296 295 294 295 295
324 323 325 325 326 326 322 323 322 324 327 325 326 324 323 324 321 319 318 316 315 314 314 314 313 311 311 311 310 308 306 305 303 301 299 297 296 296 296 295 294 292 291 290
323 324 325 325 323 323 324 321 322 322 323 323 323 323 323 323 320 318 316 315 314 313 313 312 311 310 310 309 308 305 303 301 300 298 296 295 293 292 291 289 289 289 288 287
317 321 324 324 323 321 320 320 322 322 323 322 321 320 321 322 319 317 315 313 313 312 311 310 310 309 308 306 303 302 300 299 298 295 293 290 289 289 288 287 286 286 284 283
316 316 320 324 320 324 323 323 321 321 322 323 321 320 319 321 319 316 314 313 312 311 310 309 308 305 303 301 299 298 298 296 293 291 290 289 288 287 287 286 283 283 282 282